              Height (m), 1500.0000, 1650.0000, 1800.0000, 1950.0000, 2100.0000, 2250.0000, 2400.0000, 2550.0000, 2700.0000, 2850.0000, 3000.0000, 3150.0000, 3300.0000, 3450.0000, 3600.0000, 3750.0000, 3900.0000, 4050.0000, 4200.0000, 4350.0000, 4500.0000, 4650.0000, 4800.0000, 4950.0000, 5100.0000, 5250.0000, 5400.0000, 5550.0000, 5700.0000, 5850.0000, 6000.0000, 6150.0000, 6300.0000, 6450.0000, 6600.0000, 6750.0000, 6900.0000, 7050.0000, 7200.0000, 7350.0000, 7500.0000, 7650.0000, 7800.0000, 7950.0000, 8100.0000, 8250.0000, 8400.0000, 8550.0000, 8700.0000, 8850.0000, 9000.0000, 9150.0000, 9300.0000, 9450.0000, 9600.0000, 9750.0000, 9900.0000,10050.0000,10200.0000,10350.0000,10500.0000,10650.0000,10800.0000,10950.0000,11100.0000,
  5-NOV-1996 00:02:08.00,    5.1634,    5.4389,    5.3343,    5.1302,  999.0000,  999.0000,    3.0101,  999.0000,    2.4963,  999.0000,    0.3685,    0.0547,    0.0491,    0.2428,    1.2092,    2.0295,  999.0000,    5.3952,    5.4889,    5.4317,    4.7594,    5.1845,    5.3291,    4.3547,    3.4289,    3.1953,    3.1349,    3.5454,    5.4871,    5.6818,    5.0885,    4.9297,    3.9164,    1.5806,   -0.6835,   -1.5175,   -2.5552,   -2.7211,   -3.2206,   -3.1736,   -2.3049,   -3.6432,   -5.5769,   -7.2509,   -8.3328,   -9.3574,   -9.2817,   -8.2785,   -7.5109,   -8.3113,   -8.0851,   -7.0657,   -6.4567,   -6.8507,   -8.2152,   -9.5647,  -10.8855,  -12.3586,  -13.8074,  999.0000,  -15.6853,  999.0000,  -20.6460,  -21.5002,  -21.9068,
  5-NOV-1996 00:06:44.05,    5.1206,  999.0000,    5.4686,    5.4279,  999.0000,  999.0000,  999.0000,    0.7873,  999.0000,  999.0000,    0.5345,    0.1986,   -0.3600,  999.0000,    0.0160,    0.3804,  999.0000,    5.0665,    5.1648,  999.0000,    4.1597,    4.1558,    4.5722,    3.8132,    4.3117,    3.1920,    3.6956,    4.7672,    5.8194,    5.9457,    5.7679,    5.1854,    3.7736,  999.0000,   -1.2482,    0.5515,   -3.3797,   -4.3723,   -4.4656,   -3.3369,   -2.7660,   -3.7406,   -4.5236,   -6.2778,  999.0000,   -8.1139,   -8.5015,   -8.0134,   -7.1976,   -7.1588,   -7.0832,   -6.7381,   -6.2264,   -6.5402,   -7.6176,   -9.1469,  -10.0579,  -10.8242,  999.0000,  -14.7506,  -17.0475,  -20.1436,  -22.6130,  -22.7621,  -23.3777,
  5-NOV-1996 00:11:18.11,    5.4189,    5.7758,    5.5133,  999.0000,    3.3594,  999.0000,    0.7332,    0.4260,    0.4743,    0.5733,    0.2684,   -0.5270,   -0.3610,   -0.0582,    0.3068,  999.0000,    3.8724,    4.2141,    3.8056,    4.8355,    4.2275,    2.9816,    2.9634,    3.7524,    3.7563,    3.9699,    4.2269,    4.7198,    5.4714,    6.3302,    6.1320,    5.1296,    3.0113,    1.4060,  999.0000,   -3.2109,   -4.9519,   -5.1990,   -3.7627,  999.0000,   -3.5681,   -4.3464,   -5.2187,   -6.1021,   -8.3659,   -9.2858,   -8.7530,   -7.6616,   -7.8844,   -8.2000,   -7.9260,   -7.1801,   -6.8880,   -7.2718,   -8.9325,  -10.7138,  -10.9483,  -11.7726,  -13.7752,  -18.0566,  -18.5892,  -20.5420,  -21.8946,  -22.9829,  -24.4253,
  5-NOV-1996 00:15:52.09,    7.2158,  999.0000,    5.9667,  999.0000,    4.4829,  999.0000,  999.0000,    1.6189,    1.8222,    1.6277,    0.7167,    0.2381,   -0.5162,   -0.0151,    0.8337,    0.7098,  999.0000,    5.2319,  999.0000,    5.6196,    5.0709,  999.0000,  999.0000,    5.4701,    4.2106,    4.1780,    4.7263,    5.2920,    5.9906,    6.6169,    6.3181,    5.8027,    4.7472,    3.0691,    0.7863,   -2.7575,   -3.4247,   -4.1588,   -3.4299,   -3.2245,   -3.2242,   -4.4740,   -5.4053,   -6.4242,   -8.0746,   -8.3175,   -7.3444,   -6.8998,   -8.4907,   -8.9764,   -6.8241,   -6.9234,   -7.3415,   -7.4437,   -8.7986,  -10.2234,  -11.4799,  -12.9670,  -14.3796,  -16.0088,  -18.5866,  -20.6017,  -22.4515,  -22.5451,  -24.2235,
  5-NOV-1996 00:20:28.42,    7.5780,  999.0000,    5.7603,    5.3916,    5.4467,  999.0000,    1.6541,    1.2033,    1.0238,    1.1631,    1.1380,    0.6203,    0.5917,    0.2820,    0.3452,  999.0000,  999.0000,  999.0000,  999.0000,    5.6178,    5.9773,    5.3966,    5.4111,    4.4425,    5.3530,    4.5597,    5.1454,    5.9843,    6.0531,    6.6919,    5.7392,    5.0387,    4.4778,    3.0258,   -0.5429,   -1.9274,   -1.8431,   -3.4751,   -3.5752,  999.0000,   -3.9707,   -4.1570,   -4.7692,   -6.0182,   -7.7844,   -7.5717,   -6.3444,   -6.2914,   -6.7047,   -7.2508,   -6.3588,   -5.6263,   -6.2480,   -7.4580,   -8.1455,   -9.5445,  -11.0461,  -12.0113,  -13.8869,  999.0000,  -17.8387,  -19.5168,  -19.1215,  -18.8667,  -21.3120,
  5-NOV-1996 00:25:04.63,    5.8891,    5.4300,    5.2890,    5.1522,  999.0000,    3.1235,    2.2553,  999.0000,    1.3411,  999.0000,    0.6796,    0.1133,   -0.4682,   -0.3831,  999.0000,    0.2652,  999.0000,  999.0000,    5.3421,    5.8285,    5.9115,    5.6110,    5.6207,    4.5213,    4.1460,    4.1791,    4.0914,    4.3334,    4.8045,    5.7541,    5.2388,    5.2593,    4.0992,    3.0446,    0.2560,   -2.1069,   -3.3086,   -3.1229,   -2.5689,  999.0000,   -3.2371,   -3.9039,   -4.9151,   -6.6297,   -7.1817,   -7.4221,   -6.4086,   -5.7936,   -5.2760,   -5.7626,   -5.9807,   -6.0923,   -6.1417,  999.0000,  999.0000,   -9.8130,  -10.4621,  -11.8557,  -13.9285,  999.0000,  -16.2887,  -17.6520,  -18.5499,  -19.6514,  -22.0957,
  5-NOV-1996 00:29:38.80,    7.8114,  999.0000,  999.0000,  999.0000,    5.5739,  999.0000,    3.0492,  999.0000,    2.2760,    2.5153,  999.0000,    1.0809,    0.5865,    0.5003,    0.3287,    1.2405,  999.0000,    5.2440,    5.2570,    5.0937,    5.6888,    5.3561,    5.1209,    4.1423,    3.5839,    2.9493,    4.0305,    4.6699,    4.9198,    5.1155,    5.6918,    3.7129,    3.3049,    2.8714,   -0.1006,   -2.6642,   -4.2057,   -4.8069,   -5.4524,   -5.9718,   -4.6564,   -5.2959,   -6.7010,   -8.1556,   -7.2172,   -7.3698,   -7.0918,   -6.5436,   -5.6697,   -5.0813,   -5.5693,   -5.7356,   -6.1807,   -7.4266,   -8.6281,  -10.3541,  -11.3775,  -13.0656,  -14.9419,  999.0000,  999.0000,  999.0000,  -19.1189,  -21.0100,  999.0000,
  5-NOV-1996 00:34:16.06,    5.1955,    5.4711,    5.4905,    5.4026,    5.2764,  999.0000,    2.7674,  999.0000,    0.3913,    1.7012,    1.3011,    1.0445,    0.7513,    0.0721,    0.0130,    1.3745,  999.0000,    5.4241,    4.8647,  999.0000,    5.6047,    5.6438,    5.6367,    4.7366,    4.1819,    3.7053,    3.8368,    4.6437,    5.2789,    5.8089,    6.5053,    5.4160,    4.3089,    3.5804,   -0.0885,   -2.7858,   -4.6205,   -5.2098,   -5.4391,   -4.7052,   -5.2363,   -5.8435,   -7.0079,   -7.9135,   -7.3955,   -7.6860,   -7.6892,   -6.7021,   -5.4100,   -5.7425,   -6.6924,   -6.8859,   -6.5603,   -7.1062,   -9.2819,  -11.3682,  -12.1446,  -13.8710,  -15.6283,  -15.3881,  -16.6839,  -19.0172,  -19.6884,  -22.0854,  -24.0499,
  5-NOV-1996 00:38:51.58,    5.3389,  999.0000,    5.5891,  999.0000,  999.0000,  999.0000,  999.0000,    0.9067,    0.7041,  999.0000,    2.8209,    2.8600,  999.0000,    0.7777,  999.0000,  999.0000,  999.0000,  999.0000,    2.9791,    3.2166,  999.0000,    6.2175,    6.6375,    5.3073,    4.6708,    4.1980,    4.0342,    4.8501,    5.9837,    6.1985,    6.8831,    6.3189,    5.1782,    4.2772,    0.5859,   -2.1767,   -4.3547,   -5.2128,   -5.3336,   -5.0152,   -4.8559,   -5.1147,   -6.2450,   -7.6286,   -7.5674,   -7.6146,   -7.0824,   -5.6939,   -4.0098,   -3.9505,   -5.1102,   -6.7261,   -7.2169,   -7.3699,   -8.6381,  -10.7274,  -12.1818,  999.0000,  999.0000,  -16.4281,  -18.2850,  -18.7597,  -19.5218,  -22.5463,  -24.6143,
  5-NOV-1996 00:43:26.63,    5.9122,    5.8887,    5.2287,    4.8972,  999.0000,    1.0787,    0.2053,  999.0000,  999.0000,    3.0159,    2.2203,    2.1113,    1.7984,    1.0580,  999.0000,  999.0000,  999.0000,    7.6219,  999.0000,    5.5002,    6.1132,    5.7387,    6.2778,    5.9028,    5.7728,    5.6387,    5.0877,    5.8821,    7.2628,    7.4813,    7.2565,    7.7909,    7.5399,    6.8509,    3.5895,  999.0000,   -2.8252,   -3.2993,   -3.8459,   -3.9820,   -4.0255,   -5.6369,   -7.4738,   -7.6213,   -6.8066,   -6.6866,   -6.7227,   -5.1623,   -3.7937,   -4.7480,   -6.1546,   -6.5376,   -6.5778,   -7.2638,  999.0000,  999.0000,  -11.7804,  -14.2763,  -15.7853,  -17.7113,  -18.7803,  999.0000,  999.0000,  -24.5823,  -26.3213,
  5-NOV-1996 00:48:03.70,    7.2082,    8.1023,  999.0000,  999.0000,  999.0000,  999.0000,  999.0000,  999.0000,    4.7320,    4.6541,    4.0545,    3.3563,    2.9201,    1.7882,  999.0000,    5.2675,  999.0000,    6.0162,  999.0000,  999.0000,    6.4649,    6.3569,    5.9248,    6.2065,    5.5615,    5.5481,    6.7633,    7.1187,    7.3507,    7.7693,    8.2845,    7.0838,    5.7025,    4.8035,    2.0876,   -1.6327,   -2.7267,   -4.3447,   -3.1027,   -2.5696,   -3.6483,   -4.9194,   -7.5540,  999.0000,   -7.2300,   -7.4665,   -6.7524,   -5.1462,   -4.3441,   -6.2443,   -7.5992,   -7.2521,   -7.2944,   -8.0899,  -10.0146,  -12.5520,  -13.9527,  -14.5877,  -15.5294,  -17.1486,  -19.4882,  -20.6614,  -21.0783,  -23.5146,  -26.1816,
  5-NOV-1996 00:52:38.97,    5.2063,  999.0000,    3.2314,  999.0000,    1.6892,  999.0000,    0.4749,    0.3775,    1.3150,    2.9748,    2.4316,    2.0275,    2.4767,  999.0000,  999.0000,    4.6384,  999.0000,    6.3574,    6.8289,    7.0970,    6.3943,    6.1179,    5.6147,    5.5831,    5.2587,    6.7390,    6.7800,    7.5144,    7.1787,    7.0161,    7.8022,    8.1545,    7.3996,    5.3430,    3.2373,    0.1779,   -1.2895,   -1.6035,   -2.7441,   -3.2023,   -4.2024,   -5.5882,   -7.3491,   -7.4567,   -7.2072,   -7.3152,   -5.7534,   -4.0315,   -4.3550,   -5.6285,   -6.8035,   -6.9440,   -6.6582,   -8.0816,  -10.0844,  -10.9701,  -12.2454,  -14.1830,  -15.5837,  -16.6608,  -18.3581,  -19.5489,  -21.1859,  -23.5996,  -26.3424,
  5-NOV-1996 00:57:13.91,    5.7644,  999.0000,    3.3333,  999.0000,  999.0000,    1.9100,    2.3244,    2.5162,    2.7242,  999.0000,    3.0257,  999.0000,    2.2081,  999.0000,  999.0000,  999.0000,  999.0000,  999.0000,    5.7576,  999.0000,  999.0000,    5.5165,    5.4138,    5.4977,    5.7323,    6.6172,    5.8412,    5.9429,    6.3373,  999.0000,    8.1725,  999.0000,    6.4689,    3.3790,    1.1219,   -1.0405,   -1.9636,   -2.8131,   -3.7740,   -4.2143,   -5.1377,   -7.2766,   -8.5121,   -7.8014,   -7.3783,   -7.1216,   -6.0538,   -4.2750,   -3.5050,   -4.4499,   -6.0436,   -6.4243,   -6.7528,   -8.3333,  -10.4237,  -11.6377,  -12.6918,  -15.1157,  -16.1214,  -16.6592,  -18.4467,  -20.1624,  -21.5505,  -24.0303,  -26.9972,
  5-NOV-1996 01:01:52.90,    6.6777,  999.0000,  999.0000,    5.5419,  999.0000,    3.2439,    3.7534,    3.5287,    3.2754,    3.1823,    3.3637,    3.2311,    2.6902,  999.0000,  999.0000,    2.7946,  999.0000,  999.0000,  999.0000,    5.5981,    5.5144,    5.5580,    5.0873,    6.4468,    7.2298,    6.7147,    6.5545,    7.1053,    8.1786,    8.7397,    9.0416,    8.5922,    6.2893,    3.3453,    1.7850,   -0.0941,   -0.9177,   -1.5607,   -2.0736,   -3.0042,   -4.7889,   -7.4584,   -8.7163,   -8.3046,   -8.5313,   -8.6011,   -6.6104,   -4.1104,   -4.0911,   -5.4121,   -6.1776,   -6.3350,   -6.4920,   -7.5654,   -9.8330,  -11.8299,  -12.4381,  -13.4988,  -14.9030,  -16.2792,  -18.3380,  -21.0073,  -22.1111,  -24.0164,  -26.8587,
  5-NOV-1996 01:06:29.64,    6.7092,    5.8727,    5.4546,  999.0000,    2.7225,    2.2021,    2.8306,  999.0000,    3.4485,    3.7348,    3.4012,    2.7552,  999.0000,  999.0000,  999.0000,    2.9994,    4.4566,    5.1923,    5.5006,  999.0000,  999.0000,    6.1059,    5.7824,    6.2614,    6.8795,    6.3485,    6.3759,    7.7442,    8.8032,    9.3685,    8.9891,    8.2534,    6.9146,    3.2825,    1.6921,   -0.1321,   -1.8434,   -2.7799,   -3.0028,   -3.9386,   -6.0833,   -8.5990,   -9.6679,   -9.0979,   -8.6672,   -8.5800,   -6.7608,   -4.2222,   -4.7674,   -5.9713,   -6.2766,   -6.3108,   -6.3677,   -7.5902,   -9.5569,   -9.7844,  -10.9562,  -13.0543,  -15.0273,  -16.8375,  -18.9093,  -21.2851,  999.0000,  -24.9679,  -26.8413,
  5-NOV-1996 01:11:07.78,    5.8267,    5.5780,    5.4473,  999.0000,  999.0000,  999.0000,  999.0000,  999.0000,    3.4017,    2.8927,  999.0000,    1.4631,    0.8383,    0.5411,    0.6302,  999.0000,    4.5019,  999.0000,  999.0000,    6.0498,  999.0000,    6.7950,  999.0000,    5.5704,    5.9720,    6.3538,    6.6591,    7.9233,    8.9254,    9.6560,    9.0732,    8.4806,    7.1118,    3.8062,    1.3727,   -1.1016,   -2.3399,   -2.5751,   -2.8811,   -4.4755,   -6.7745,   -9.3293,  -10.1933,   -8.6692,   -8.4805,   -7.9098,   -5.8601,   -4.1953,   -5.5065,   -6.7263,   -7.0413,   -7.1156,   -6.9894,   -7.7288,   -8.7575,   -9.5326,  -10.9878,  -13.2779,  999.0000,  -17.0612,  -18.3046,  -20.6018,  -23.3312,  -25.1250,  -25.6378,
  5-NOV-1996 01:15:43.04,    7.0324,    6.0755,    5.4308,    5.3513,    4.8636,  999.0000,    1.4517,    1.9617,    3.3331,    3.3163,    2.2815,    1.4877,    0.4476,   -0.0191,    0.3442,  999.0000,    2.5998,  999.0000,    5.5658,  999.0000,  999.0000,  999.0000,    5.5308,    5.6997,    6.1780,    6.0640,    6.5768,    8.0797,    7.9122,    8.5867,    8.7297,    8.5779,    7.6196,    4.2286,    1.5667,   -1.1326,   -2.0889,   -2.0533,   -1.9609,   -3.5034,   -5.0215,   -7.3548,   -8.9881,   -8.3851,   -8.1126,   -7.0699,   -5.5835,   -4.6664,   -5.3313,   -6.0023,   -6.1704,   -5.5301,   -5.7508,   -6.9656,   -7.2660,   -7.9533,   -9.6786,  -12.0383,  -14.3899,  -15.7432,  -17.8325,  -20.3732,  -21.7524,  -23.0198,  -23.2285,
  5-NOV-1996 01:20:19.44,    7.9687,  999.0000,    5.8781,    5.4601,    5.3027,  999.0000,    1.9512,    1.4556,    3.4754,  999.0000,    3.0116,    1.4494,    0.7703,    0.4529,    0.8500,    2.4706,    4.6131,    5.1944,    5.4260,    5.3849,    5.4991,    5.7463,    6.0973,    6.6633,    6.2234,    6.0633,    6.5966,    7.3519,    7.8938,    7.6398,    7.6667,    7.8370,    6.8302,    4.9720,    2.5205,    0.1662,   -1.1591,   -1.9113,   -2.1637,   -3.2670,   -5.4462,   -7.6405,   -8.3915,   -8.2141,   -7.8547,   -6.7245,   -5.5489,   -5.5535,   -6.0666,   -6.8142,   -7.0377,   -6.0538,   -6.2356,   -7.1904,   -7.8053,   -8.6907,   -9.3577,  -11.3214,  -13.9242,  -15.1625,  -16.5013,  -19.2186,  -21.7342,  -21.7011,  -22.3464,
  5-NOV-1996 01:24:54.76,    7.1270,    6.6477,    5.8192,    5.4497,    5.4337,    5.4414,  999.0000,    1.0117,  999.0000,    4.5949,  999.0000,  999.0000,    1.0378,  999.0000,    0.9348,  999.0000,    4.8178,    5.4495,    5.5356,    5.4881,    5.6838,  999.0000,  999.0000,    7.8481,    7.5813,    7.0756,    7.4176,    8.2451,    7.9165,    7.8642,    7.9643,    7.9809,    6.8053,    5.5598,    3.6352,    1.3926,   -0.4642,   -1.5659,   -2.4017,   -3.9863,   -6.6800,   -8.9601,   -9.7453,   -9.4911,   -8.6599,   -7.8121,   -6.5689,   -5.7514,   -6.5015,   -7.2971,   -7.2308,   -6.6545,   -7.2274,   -7.8364,   -7.8206,   -8.9535,  -10.2485,  -11.3802,  -13.5181,  -14.9296,  -16.7927,  -18.9764,  -20.8823,  -21.6188,  -22.9039,
  5-NOV-1996 01:29:29.80,    5.5666,    5.5657,    5.5701,    5.5043,    5.4504,  999.0000,  999.0000,    0.6111,  999.0000,    2.7132,    3.1792,  999.0000,    0.2796,  999.0000,    2.5658,  999.0000,    5.1947,    5.6067,    5.6552,    5.5255,  999.0000,    7.9122,    6.6317,    7.4332,    7.6685,    7.3142,    7.6478,    7.8276,    7.8967,    7.0766,    8.3666,    7.7695,    6.8111,    3.3355,    1.7864,    0.1284,   -0.3158,   -1.4987,   -2.8160,   -3.6036,   -6.1685,   -8.8967,   -9.6953,   -9.6764,   -9.4815,   -8.4558,   -6.6525,   -5.8852,   -7.5672,   -8.8908,   -8.1381,   -7.2610,   -7.7610,   -8.3913,   -8.2952,   -9.6893,  -10.8097,  -11.5249,  -13.9246,  -15.2327,  -16.8995,  -18.9492,  -21.1021,  -22.1348,  -23.0580,
  5-NOV-1996 01:34:04.96,    5.8424,    5.6859,    5.6183,  999.0000,    5.5079,    5.3051,  999.0000,    1.2130,    1.8597,    2.6903,    2.7714,  999.0000,    0.0639,    0.6036,    2.2051,    2.6216,  999.0000,    5.3784,  999.0000,    5.5957,  999.0000,    6.8326,    7.5916,    7.7359,    7.9341,    8.8256,    8.8934,    8.5316,    8.4375,    9.0670,    8.4485,    7.5860,    6.2030,    4.9377,    3.2395,    1.0956,    1.6066,   -0.0199,   -1.9825,   -3.4900,   -5.8218,   -7.8045,   -8.3044,   -8.9884,   -9.1478,   -8.0752,   -6.6686,   -5.4078,   -6.8912,   -8.3132,   -8.2851,   -7.5033,   -7.5078,   -8.0951,   -8.7093,   -9.4362,  -10.4514,  -11.5651,  -13.2694,  -15.2747,  -16.9671,  -18.7320,  -21.4331,  -22.4231,  -22.2686,
  5-NOV-1996 01:38:41.73,    5.7774,    5.5976,    5.0718,    5.5360,    5.6043,  999.0000,  999.0000,  999.0000,    1.2952,  999.0000,  999.0000,    0.8484,  999.0000,   -0.0678,    0.6594,  999.0000,    4.0676,  999.0000,    6.2257,  999.0000,    8.3695,    8.9150,   10.2969,    8.0788,    8.5719,    8.5427,    8.9612,    9.0287,    7.1598,    7.0423,    6.4557,    6.1003,    5.3368,    4.8633,    3.7407,    2.3021,    1.8423,    0.4672,   -2.4695,   -3.7770,   -6.7419,   -8.5547,   -8.3626,   -8.3566,   -8.2047,   -7.5321,   -6.3432,   -5.6725,   -7.3885,   -8.2408,   -7.4451,   -6.7089,   -6.9600,   -7.4365,   -7.8564,   -9.0188,  -10.4218,  -11.5834,  -13.4719,  -15.0771,  -17.5343,  -20.0970,  -20.4248,  -21.1103,  -20.7947,
  5-NOV-1996 01:43:19.39,    6.1275,  999.0000,    3.5133,  999.0000,    5.1560,  999.0000,    1.5767,  999.0000,  999.0000,    2.8201,    2.8481,  999.0000,    0.6758,    0.1512,    0.5265,  999.0000,    5.1135,    5.4482,    5.4358,    5.4566,    5.5627,  999.0000,    8.2365,    8.7707,    8.8930,    8.7830,    8.2374,    8.5679,    7.6061,    8.1172,    8.0253,    7.8957,    6.1822,    5.8909,    3.8081,    2.1110,    0.5627,   -0.6798,   -2.4184,   -4.2905,   -6.9747,   -7.7077,   -7.4874,   -7.6517,   -7.1366,   -6.1154,   -5.8466,   -6.2930,   -7.7317,   -8.2952,   -7.8612,   -7.1737,   -6.8701,   -7.6043,  999.0000,  999.0000,  -10.7043,  -12.8084,  -14.3864,  -16.5634,  -18.6525,  -20.5231,  -21.8674,  999.0000,  999.0000,
  5-NOV-1996 01:48:29.95,    5.5609,    5.5001,    5.4486,    5.4554,    5.4559,    5.4342,  999.0000,    1.7623,  999.0000,  999.0000,  999.0000,    1.7115,    0.9370,    0.4189,    0.4680,    0.8335,  999.0000,  999.0000,    5.1708,    5.4133,    5.8505,    6.2597,  999.0000,    9.1710,    8.9102,    9.1992,    9.5257,    8.5151,    8.4088,    8.3973,    7.1960,    6.2317,    4.7717,    3.5680,    1.7517,    1.2055,    0.8962,   -1.5953,   -4.8150,   -7.2416,   -9.2669,   -9.0578,   -8.2577,   -8.6964,   -8.1696,   -6.5593,   -6.4792,   -7.1444,   -8.6583,   -8.8299,   -8.2657,   -8.0096,   -7.8673,   -8.2288,   -7.8746,   -8.7495,  -10.7546,  -12.7340,  -14.4316,  -16.3211,  -18.7334,  -20.0704,  -22.4367,  -24.0910,  -24.7663,
  5-NOV-1996 01:53:06.26,    5.4339,    5.4982,    5.4545,    5.4052,    5.4259,  999.0000,  999.0000,    2.8449,    2.8153,    2.7422,    2.7687,  999.0000,  999.0000,    0.4854,    0.6999,    2.8111,    4.5914,    5.2704,    6.0119,  999.0000,    8.5793,  999.0000,    7.2445,    8.6740,    8.3276,    9.0267,    8.4918,    8.9364,    8.9477,    8.3126,    7.5463,    7.0563,    6.2678,    5.3405,    4.7974,    4.1950,    1.2587,    1.2003,   -3.3212,  999.0000,  -10.0115,   -8.9432,   -8.1083,   -7.9256,   -6.8646,   -6.0651,   -6.5003,   -7.9540,   -9.4568,   -9.6260,   -9.5417,  999.0000,  999.0000,   -6.7926,   -6.8015,   -8.6626,  -10.3122,  -12.0258,  -13.8825,  -15.0883,  -16.2081,  -19.2035,  -21.6691,  -24.0642,  999.0000,
  5-NOV-1996 01:57:40.38,    5.4821,  999.0000,  999.0000,  999.0000,    5.0794,    4.9713,  999.0000,  999.0000,    2.8317,  999.0000,  999.0000,    2.5978,    2.5312,  999.0000,    0.9666,  999.0000,  999.0000,  999.0000,  999.0000,    8.0701,  999.0000,    7.9060,  999.0000,    9.6794,    8.8074,    8.4582,    8.5250,    8.2800,    6.8943,    7.2876,    6.7218,    7.2349,    5.9393,    5.5296,    4.6120,    2.9926,    0.9305,   -1.7079,   -5.4653,   -9.8800,  -10.8809,  999.0000,   -7.7906,   -6.9336,   -5.2179,   -4.3155,   -4.6373,   -5.4837,   -6.8905,   -7.5711,   -7.9028,   -7.4725,   -6.8031,   -6.3767,   -7.0888,   -8.5137,  -10.2693,  -12.0727,  -13.7555,  -15.6257,  -17.1936,  -19.4456,  -21.9503,  -23.2177,  -22.5047,
  5-NOV-1996 02:02:16.59,    5.5119,    5.6423,    4.8624,    4.4939,    4.3251,    3.7558,  999.0000,    1.6588,    2.3923,  999.0000,  999.0000,  999.0000,  999.0000,    1.1608,    1.6286,    3.2109,  999.0000,    5.7468,    7.7974,    7.8631,    7.6833,    7.1278,    8.4900,    9.0464,    8.2576,    8.4894,    8.1368,    7.8299,    7.4724,    8.2523,    8.6830,    6.9697,    7.0304,    6.1426,    5.5343,    5.3786,    4.0708,    1.7304,   -2.1687,   -5.1799,   -7.2014,   -7.3410,   -6.3156,   -5.5979,   -4.7851,   -4.3192,   -4.1469,   -4.5424,   -6.2668,   -6.9527,   -7.2502,   -7.2602,   -6.1579,   -5.8384,   -7.0710,   -8.3645,   -9.8162,  -11.8281,  -13.6742,  -15.4384,  -16.9401,  -19.0524,  -21.4709,  -22.1533,  999.0000,
  5-NOV-1996 02:06:54.10,    7.5558,    7.3923,    5.8842,    5.4303,    5.4353,  999.0000,  999.0000,    1.6026,    2.1712,    2.8322,  999.0000,  999.0000,    1.1061,    0.6822,    0.7387,  999.0000,    4.6864,    5.6283,    6.5965,    6.2913,    6.3072,    8.6456,    9.5382,    8.9373,    7.5127,    7.4291,    7.7335,    7.7171,    7.7890,    7.0265,    6.7710,    5.3098,    3.4024,    3.2057,    2.0252,   -0.0857,   -1.7316,   -3.6872,   -5.9848,   -7.7143,   -8.4284,   -8.0647,   -6.9693,   -6.3699,   -5.0926,   -4.8814,   -5.2750,   -5.7670,   -6.9885,   -7.9510,   -7.8227,   -8.5835,   -7.8247,   -7.0619,   -6.6834,   -7.6335,   -9.4234,  -11.3052,  -13.6187,  -14.9876,  -16.6571,  999.0000,  -20.8635,  -22.4190,  -23.8652,
  5-NOV-1996 02:11:29.96,    5.7692,    5.6946,    5.4397,    5.3877,    5.4086,    5.3221,  999.0000,  999.0000,    3.1176,  999.0000,  999.0000,    2.8140,    2.4287,    1.7021,    1.0776,    3.4359,    4.9006,    5.4228,    5.8944,    5.5930,    6.0007,  999.0000,    9.7419,    9.7850,    9.3072,    9.4163,   10.3679,    9.0666,    8.4879,    8.8247,    7.0281,    5.8290,    3.7300,    2.9228,    1.9120,    0.9167,   -0.5682,   -3.2751,   -5.5008,   -7.5939,   -8.5551,   -7.4833,   -6.4309,   -6.2426,   -5.7877,   -5.2753,   -5.1094,   -5.1923,   -6.0312,   -6.8907,   -7.2918,   -6.1788,   -5.8914,   -6.4751,   -6.4828,   -7.3639,   -9.1324,  -11.0953,  -13.1401,  -14.5735,  -15.9193,  -17.6318,  -20.3438,  -23.2737,  -23.6976,
  5-NOV-1996 02:16:03.85,    5.2661,    5.6174,  999.0000,  999.0000,    5.4555,  999.0000,  999.0000,    2.9246,  999.0000,  999.0000,    3.5233,    3.7590,    2.9739,    2.8710,  999.0000,    4.1953,    5.1856,  999.0000,    6.5339,  999.0000,    7.2720,    9.1904,  999.0000,    8.5198,    8.8512,    8.3206,  999.0000,    8.9798,    9.9371,    9.1856,    6.0495,    4.0995,    2.5272,    1.2611,    0.4756,    0.0517,   -1.2844,  999.0000,  999.0000,   -7.8490,   -8.9607,   -7.5020,   -6.8956,   -6.5885,   -6.4966,   -5.8516,   -5.3392,   -5.3780,   -6.3128,   -7.4254,   -7.9754,   -7.4243,   -7.2134,   -7.0817,   -6.9489,   -7.5883,   -9.2980,  -11.3154,  -12.5650,  -14.2966,  999.0000,  -18.7738,  -20.7047,  -22.2577,  -23.2001,
  5-NOV-1996 02:20:37.87,    5.5427,    5.4929,    5.4118,    5.4248,  999.0000,    4.3656,  999.0000,  999.0000,  999.0000,    2.7794,    2.9037,  999.0000,    1.0024,    0.6753,    0.8062,    0.8208,  999.0000,    5.3319,  999.0000,  999.0000,    8.9646,  999.0000,    8.6053,    9.6911,    9.1985,    7.7933,    9.9682,    8.5462,    8.1033,    8.0911,    5.8939,    4.2773,    3.6645,    2.8116,    1.7735,    1.3725,    0.1924,   -2.5611,   -5.2174,   -7.5168,   -8.1110,   -6.5956,   -6.1877,   -6.7722,   -6.9726,   -5.8793,   -5.2323,   -5.3012,   -6.5577,   -7.9748,   -7.9891,   -7.8704,   -8.4852,   -8.0599,   -7.2417,   -7.8152,   -8.9381,  -10.1608,  -11.5305,  -13.7793,  -15.6732,  -17.8657,  -19.9718,  -21.9518,  -23.3073,
  5-NOV-1996 02:25:13.72,    5.1290,    5.4893,    5.4133,    5.2593,  999.0000,    5.2809,    2.7395,  999.0000,    2.8062,  999.0000,  999.0000,  999.0000,    0.8367,    0.8161,    0.6779,  999.0000,  999.0000,    5.3268,    6.7089,  999.0000,   10.0142,    9.5083,    9.6690,   10.3157,    9.3772,    9.6132,    8.7203,    8.6242,    7.7256,    5.4138,    4.9756,    3.2192,    1.5800,    1.4610,    2.0007,    1.5184,   -1.1278,   -4.1009,   -6.5081,   -7.6231,   -6.9450,   -6.5053,   -6.3616,   -6.8355,   -6.7138,   -4.8309,   -3.4991,   -3.1073,   -4.1176,   -5.9935,   -6.8454,   -6.6480,   -7.1782,  999.0000,  999.0000,   -6.8283,   -8.6242,  -10.9394,  -12.8685,  -14.1594,  -15.3469,  -17.9542,  -21.2097,  -23.3171,  -23.7409,
  5-NOV-1996 02:29:47.65,    5.4276,    5.5227,    5.4122,    5.4286,    5.4449,    5.4364,    3.5561,    2.3816,    3.3870,  999.0000,    4.9795,  999.0000,  999.0000,    0.8411,    0.7438,  999.0000,  999.0000,    5.4709,    6.3864,  999.0000,    6.3420,    6.2757,    7.6509,    9.2875,    9.2616,    9.2648,    9.0092,    8.1637,    6.6365,    4.0508,    2.9640,    3.1974,    3.7486,    1.2730,    1.8632,    1.3608,   -1.6747,   -4.3485,   -6.4031,   -7.7093,   -8.0843,   -7.5165,   -7.7756,   -8.6432,   -8.4593,   -6.4503,   -4.4598,   -3.5553,   -4.0954,   -4.8787,   -6.1625,   -7.2845,   -5.9890,   -6.1953,   -6.3239,   -6.9311,   -8.3642,   -9.7291,  -11.6586,  -14.7010,  -15.4874,  -18.1257,  999.0000,  -24.7943,  999.0000,
  5-NOV-1996 02:34:23.81,    5.3210,    5.4442,    5.4563,    5.4297,    5.4091,    5.3103,  999.0000,    1.6879,  999.0000,    2.6993,    3.2287,  999.0000,    1.2661,    0.8253,    1.0050,    1.4458,  999.0000,    6.6343,    7.8202,    8.3904,    8.5847,    8.5185,    8.2166,    9.3171,    8.7931,    9.4188,    9.0880,    8.8821,    7.7241,    4.7721,    2.7425,    1.8092,    1.8262,    1.3072,    1.9383,    0.8962,   -1.9326,   -3.2251,   -5.0213,   -6.1020,   -6.5292,   -6.1106,   -6.1996,   -6.7756,   -7.0587,   -6.2574,   -5.0318,   -4.6066,   -5.1014,   -4.8400,  999.0000,  999.0000,   -5.0467,   -5.5971,   -6.2128,   -7.3047,   -8.5790,  -10.4143,  -12.5067,  -15.4701,  -16.7801,  -19.0252,  -21.8450,  -24.2722,  999.0000,
  5-NOV-1996 02:38:59.77,    5.3339,    5.6060,    5.4294,    5.4008,    5.2817,  999.0000,  999.0000,    0.7703,    1.1695,  999.0000,    2.5998,    3.1864,  999.0000,  999.0000,    3.1646,    3.6353,    4.9075,  999.0000,  999.0000,    9.9070,   10.1012,    9.4325,    9.0070,    9.6185,    9.1403,    9.9300,    9.2043,    8.9626,    7.4497,    4.4943,    3.2243,    3.1398,    2.6845,    2.0254,    2.0503,    0.2740,   -1.8434,   -4.2804,   -5.9865,   -6.4177,   -5.1966,   -4.3162,   -4.5416,   -5.3368,   -5.6547,   -5.0944,   -4.1966,   -3.4949,   -3.9848,   -4.0591,   -4.7414,   -5.6246,   -5.8058,   -6.5448,   -7.2073,   -7.5096,   -8.0918,   -9.1128,  -12.8941,  -13.4875,  -14.9559,  -16.7641,  -19.1533,  -20.8998,  -21.5591,
  5-NOV-1996 02:43:36.50,    5.4672,    5.7105,    5.6844,  999.0000,  999.0000,  999.0000,    2.1682,    1.0773,    2.5590,    3.2032,    3.6228,    3.9564,    3.2672,    2.6444,    3.7520,    2.2876,    2.7213,  999.0000,    6.5999,  999.0000,  999.0000,    7.8513,  999.0000,   10.2469,    9.3003,    9.5914,    8.9794,  999.0000,    6.0745,    4.4493,    4.2901,    4.8900,    1.9347,    2.4131,    1.2741,   -0.7365,   -2.9971,   -4.3373,   -4.8654,   -4.6383,   -4.7207,   -6.0327,   -7.0997,   -7.5763,   -7.0690,   -5.6372,   -4.9555,   -5.3041,   -6.1488,   -5.3245,   -4.2019,   -4.3176,   -5.1342,   -6.3246,   -6.9068,   -6.8164,   -7.4249,   -9.2630,  -11.8169,  -13.2867,  -15.0671,  -16.8119,  -19.0991,  -21.5010,  -21.6578,
  5-NOV-1996 02:48:12.71,    5.0934,  999.0000,    5.5265,  999.0000,    3.9109,    3.7415,  999.0000,  999.0000,    2.5957,    3.0595,    3.4987,    3.1866,  999.0000,    2.0513,  999.0000,    3.3598,    3.0777,  999.0000,  999.0000,    8.8241,   10.4274,    9.7916,  999.0000,    9.6802,    9.3383,    9.6449,    8.8550,    7.7649,    6.8860,    4.9054,    3.4728,    3.9142,    4.0360,    2.0939,    1.9166,    2.8342,    1.1319,   -2.1399,   -3.1098,   -3.7181,   -3.3431,   -4.4779,   -5.2992,  999.0000,   -5.0675,   -4.2313,   -3.7886,   -3.7566,   -3.5019,   -3.3280,   -3.5665,   -4.2445,   -5.3146,   -6.4348,   -6.7482,   -7.1028,   -8.2650,  -10.0135,  -11.6273,  -13.9143,  -16.3222,  -18.3528,  -20.3778,  -22.0356,  -22.7385,
  5-NOV-1996 02:52:49.19,    5.1100,    5.4701,    5.4123,    5.2715,  999.0000,    3.8278,    3.4892,  999.0000,    3.2112,    3.9760,    3.9096,    2.9840,  999.0000,    3.4957,    3.9118,    3.9861,    4.9540,    7.7973,    9.5843,    8.2384,  999.0000,    9.1803,   10.2805,    9.6004,    9.0669,    8.7537,    9.4415,    7.0199,    6.9207,    4.5198,    3.6690,    1.8839,    2.1626,    0.2990,   -0.3358,   -1.0528,   -2.3674,   -5.0246,   -6.5185,   -6.5212,   -6.4731,   -7.5777,   -8.5185,   -9.3954,   -9.0366,   -8.2670,   -7.2174,   -6.8329,   -6.2489,   -6.3586,   -6.7345,  999.0000,  999.0000,   -8.7460,   -8.7316,   -9.0241,  -10.4277,  -12.6690,  -14.0905,  -16.1288,  -18.0618,  -20.2790,  -23.0465,  -24.7445,  -24.7416,
  5-NOV-1996 02:57:23.07,    4.8656,    5.3039,    5.3695,    5.2917,    5.0524,    5.0347,    5.0220,  999.0000,  999.0000,    4.9431,  999.0000,    5.1993,    5.3844,    5.3016,  999.0000,    3.6607,  999.0000,  999.0000,  999.0000,   10.4866,   10.4918,   10.4935,   12.0018,   12.0671,   12.9991,   11.5731,   10.8285,    8.5547,    7.5971,    5.5841,    4.8494,    4.8432,    4.8624,    4.7482,    2.0023,    0.7247,    0.3299,   -1.3547,   -3.0430,   -3.5056,   -3.5927,   -3.9718,   -5.1166,   -6.2382,   -6.8197,   -7.1260,   -6.2547,   -5.7123,   -6.1719,   -6.5270,   -5.6457,  999.0000,   -7.3837,   -8.6942,   -9.8545,  -10.6455,  -10.9174,  -12.5714,  -14.6459,  -16.5899,  -18.2072,  -20.6996,  999.0000,  999.0000,  999.0000,
  5-NOV-1996 03:01:59.33,    5.4010,    5.3437,    5.4190,  999.0000,    3.3764,    3.2519,    2.9475,  999.0000,    2.0460,  999.0000,    4.7749,  999.0000,    5.0416,  999.0000,  999.0000,    5.6335,  999.0000,  999.0000,  999.0000,    8.5414,    8.4505,    8.3632,    7.7627,    8.3230,    8.9254,    8.1228,    6.0280,    4.0021,    3.2076,    3.4578,    4.0875,    4.0367,    3.8936,    2.3645,    2.4725,    1.1283,   -1.0158,   -3.2810,   -4.7261,   -5.0313,   -4.2682,   -4.7854,  999.0000,   -6.0636,   -6.4038,   -6.9395,  999.0000,  999.0000,   -4.9941,   -5.0972,   -5.5192,   -6.1774,   -7.0634,  999.0000,  999.0000,   -9.9650,  -11.2640,  -13.3743,  -15.3656,  -16.6572,  -18.1751,  -21.1344,  -24.5431,  -25.7629,  -24.8854,
  5-NOV-1996 03:06:35.35,    5.0154,    5.3817,  999.0000,    4.7363,    4.4382,    4.8994,  999.0000,    2.8490,  999.0000,    3.5715,  999.0000,    2.7838,    3.0323,  999.0000,    7.3008,    6.6672,    7.6671,    7.4304,  999.0000,  999.0000,  999.0000,    8.2583,    7.5529,    7.6452,    7.8401,    8.3924,    7.3786,    5.5581,    3.9882,    3.7165,    3.7454,    3.7463,    2.4846,    1.4537,    0.1073,   -1.0863,   -3.3922,   -5.4594,   -6.0302,   -5.7014,   -4.9699,   -4.5007,   -4.8452,   -5.1002,   -4.9776,   -5.3325,   -5.0372,   -4.3442,   -3.7894,   -3.8558,   -4.5936,   -5.4510,   -6.4514,   -6.7048,   -7.1500,   -8.3970,  -10.2044,  -11.8580,  -13.4593,  -15.0674,  -16.6097,  -18.4700,  -20.8322,  -23.7420,  999.0000,
  5-NOV-1996 03:11:11.72,    4.8305,    5.3482,    5.4290,  999.0000,    3.3214,    3.1981,    3.2812,  999.0000,    0.0595,  999.0000,    0.4655,  999.0000,    3.0875,    3.7891,    5.2862,  999.0000,    7.9141,    8.3859,  999.0000,  999.0000,    9.8427,    8.0555,    9.5336,    6.9230,    6.9674,    7.3030,    6.6774,    6.2497,    6.2472,    5.1144,    5.0002,    3.9741,    3.2035,    2.2185,    1.7428,   -0.3508,   -2.4511,   -4.8665,   -6.3753,   -6.4131,   -5.8910,   -6.8146,   -8.1494,   -8.0862,   -7.3662,   -7.0421,   -6.6985,   -5.7317,   -3.7917,  999.0000,  999.0000,  999.0000,   -6.6390,   -7.4106,   -8.0485,   -9.0867,  -11.2510,  -13.3545,  -15.0848,  -16.8470,  -19.2313,  -21.9411,  -23.2496,  -23.3958,  -24.2426,
  5-NOV-1996 03:15:45.93,    5.1280,    5.3407,    5.4509,    4.3284,    3.6337,    3.4889,  999.0000,    0.8674,    0.8562,    0.5151,  999.0000,  999.0000,    3.6748,    4.8534,    5.5980,    6.1441,    7.5989,    7.5987,  999.0000,  999.0000,    9.3543,    8.2556,    8.2509,    8.4173,    7.9515,    7.6612,    6.3588,    5.0386,    5.5347,    1.4954,    0.7097,    0.0885,    1.1024,    2.0826,    2.1403,    0.7343,   -1.0600,   -3.6317,   -5.9841,   -5.5374,   -5.0666,   -5.8784,   -7.3108,   -7.5547,   -7.2761,   -6.4528,   -6.2407,   -5.8149,   -4.7159,   -4.8353,   -6.1324,   -6.7324,   -6.5474,   -7.0104,   -8.4994,   -9.6423,  -11.0932,  -12.4662,  -14.0206,  -16.3632,  -19.1643,  -21.3814,  -22.8827,  -23.7461,  -23.5510,
  5-NOV-1996 03:20:23.20,    4.5157,    5.2228,    5.5543,  999.0000,    3.2638,    2.7972,  999.0000,  999.0000,    1.7791,    0.8817,    0.7480,  999.0000,    2.6697,  999.0000,    5.4365,  999.0000,  999.0000,    6.3453,    5.7117,    5.7310,    5.7694,    7.2253,    7.5361,    9.1220,    8.5803,    6.0997,    3.1362,    1.5231,    0.3936,   -0.1669,    0.0214,  999.0000,   -1.0743,    1.3117,   -0.4857,   -2.6055,   -4.2113,   -5.6419,   -6.2651,   -5.4906,   -5.7404,   -6.7004,   -7.7673,   -8.5975,   -8.8242,   -8.2974,   -6.7540,   -5.2508,   -4.4079,   -4.5930,   -5.1047,   -5.5327,   -5.8794,   -6.7007,   -7.7535,   -9.5938,  -11.2774,  -11.7500,  -13.3831,  -15.8320,  -17.6477,  -19.6736,  -22.3270,  -22.2440,  -22.0107,
  5-NOV-1996 03:25:00.97,    3.2572,  999.0000,    5.2005,  999.0000,  999.0000,    3.2021,  999.0000,  999.0000,  999.0000,    0.9521,  999.0000,  999.0000,  999.0000,  999.0000,  999.0000,    6.0180,    6.5464,    7.6894,  999.0000,  999.0000,  999.0000,    7.9699,  999.0000,    9.7159,    9.1254,    6.5658,  999.0000,    1.3931,   -0.1748,    1.2036,    2.6352,    2.8075,    0.0608,   -0.2497,   -0.5171,   -1.4237,   -3.7145,   -5.3579,   -6.1601,   -6.2915,   -6.6763,   -5.6915,   -6.7784,   -7.8444,   -8.3073,   -7.8400,   -7.1571,   -5.6679,   -5.0668,   -4.7984,   -5.2215,   -5.7978,   -5.7302,   -6.7629,   -8.1975,  -10.0173,  -11.5803,  -12.8275,  -14.8567,  -16.5901,  999.0000,  -21.0927,  -22.8668,  -21.8844,  -22.6725,
  5-NOV-1996 03:29:38.14,    4.8258,    5.1409,    5.3907,  999.0000,  999.0000,    5.2383,    5.3114,  999.0000,   -0.0897,   -0.4434,    1.4019,    2.5690,    2.9008,  999.0000,  999.0000,  999.0000,  999.0000,    6.9647,  999.0000,    7.0993,  999.0000,  999.0000,    9.5808,   10.3585,   10.3416,    9.9792,    7.6616,    4.0556,    2.7222,    2.2265,    1.8701,    2.2936,    1.8241,    1.0404,   -0.0006,   -1.5302,   -3.4886,   -5.3675,   -4.8433,   -3.9100,   -4.1152,   -4.7457,   -5.1514,   -6.0267,   -6.8234,   -7.3241,   -6.7218,   -5.5317,   -5.1069,   -4.7554,   -5.5784,   -6.3053,   -6.1714,   -6.9368,   -8.3123,   -9.7169,  -11.6293,  -13.2369,  -14.7844,  -16.5757,  -19.4780,  -22.5493,  999.0000,  -21.8288,  -22.6874,
  5-NOV-1996 03:34:14.73,    3.8012,    4.7532,    5.3684,  999.0000,  999.0000,    4.0564,  999.0000,  999.0000,  999.0000,  999.0000,    2.5717,    2.8385,  999.0000,    5.2620,    5.3957,  999.0000,  999.0000,    9.0432,  999.0000,   10.7468,  999.0000,   10.4745,    9.7107,   10.1192,   11.3710,   10.2932,    9.1999,    6.5315,    4.7350,    4.8272,    4.0384,    3.0282,    2.1565,    1.5022,    0.2723,    0.2375,   -2.6417,   -4.5921,   -4.3847,   -3.5155,   -3.8598,   -4.2424,   -4.6229,   -5.5744,   -6.3256,   -6.4061,   -5.6288,   -4.9600,   -5.3014,   -5.1404,   -5.3905,   -5.6013,   -5.8900,   -7.1763,   -8.9327,  -10.3813,  -12.0037,  -13.3638,  -15.3287,  -17.1955,  -18.3361,  -22.6132,  999.0000,  999.0000,  -24.9961,
  5-NOV-1996 03:38:50.54,    4.1261,  999.0000,    5.3443,    5.6980,  999.0000,  999.0000,  999.0000,  999.0000,  999.0000,   -0.6000,  999.0000,    3.1882,    4.6268,  999.0000,    5.5136,    6.0714,    7.5700,    8.8958,  999.0000,   10.8184,  999.0000,    9.8775,   10.7970,    9.1445,   10.1276,    9.0772,    7.4467,    5.3371,    3.6973,    3.7356,    3.8060,    3.0147,    1.9599,    0.4709,   -0.6666,   -1.5500,   -3.4916,   -5.2121,   -4.3482,   -3.1293,   -3.9024,   -4.4269,   -5.3162,   -6.2886,   -7.1055,   -7.5654,   -6.1693,   -4.7111,   -4.9990,   -4.8390,   -5.0963,   -5.2327,   -5.7912,   -7.2367,   -9.5806,  -10.6254,  -11.6460,  -13.5921,  -15.7493,  -18.0260,  -19.7754,  -22.4907,  -21.6980,  -21.7737,  -24.9084,
  5-NOV-1996 03:43:24.60,    4.3834,    5.0052,    5.1227,    5.4759,    5.1972,  999.0000,    3.0065,  999.0000,    0.2794,   -0.2859,  999.0000,  999.0000,  999.0000,  999.0000,  999.0000,  999.0000,  999.0000,  999.0000,  999.0000,  999.0000,  999.0000,    8.3979,   10.1408,    8.6966,    9.7534,    9.0089,    6.8404,    3.7674,    2.4264,    1.5835,    0.7082,   -0.1734,   -0.2941,    0.1989,   -1.1718,   -2.0923,   -4.4937,   -4.9403,   -3.5308,   -3.3202,   -4.5307,   -3.8075,   -5.2210,   -5.7681,   -6.5350,   -6.4638,   -5.0827,   -3.8721,   -4.4438,   -5.3361,   -5.7050,   -5.1075,   -5.1441,   -6.3690,   -8.7910,  -10.6789,  -12.2547,  -14.5599,  -15.9696,  -17.7481,  -20.1956,  -21.6348,  -21.6311,  -22.7057,  -23.0252,
  5-NOV-1996 03:48:00.93,    4.6168,    5.3771,    5.5495,    6.3003,    4.1551,    2.8446,    2.9019,  999.0000,  999.0000,   -1.0856,   -0.7520,    0.3548,  999.0000,    5.1508,    5.5263,    6.7523,    7.4846,    8.2929,    9.5590,  999.0000,  999.0000,  999.0000,    9.2981,    8.0119,    9.7489,    9.1372,    6.2805,    3.8553,    2.4536,    1.7617,    0.5799,   -0.2305,   -0.2381,    0.7428,    0.3706,   -1.1994,   -3.1660,   -3.4951,   -2.7208,   -3.6096,   -4.1257,   -4.4390,   -5.0181,   -5.2565,   -6.5534,   -5.4367,   -4.2606,   -4.8081,   -5.5696,   -5.8988,   -5.7506,   -6.3009,   -7.4763,   -8.1611,   -9.8196,  -11.2825,  -12.3089,  -14.0725,  -16.1223,  -17.9987,  -20.5924,  -22.8135,  -22.1827,  -23.2986,  -23.9997,
  5-NOV-1996 03:52:37.41,    5.1227,    5.5135,    5.7519,    5.8907,  999.0000,    3.2562,  999.0000,  999.0000,   -0.1045,    0.1838,    1.1568,    2.0835,  999.0000,    5.2909,    5.9132,    6.8327,    7.4932,    9.2870,  999.0000,  999.0000,  999.0000,    8.7254,    8.6849,    7.9377,    8.3538,    8.9687,    6.9327,    4.1583,    2.3431,    1.8457,    1.0085,    0.9609,    0.1341,   -1.1358,   -0.5707,    0.1641,    0.8903,    0.5502,   -0.3779,   -1.9781,   -3.1932,   -4.1526,   -4.6988,   -5.4237,   -6.0958,   -4.9827,   -4.1192,   -5.1627,   -6.1083,   -5.9238,   -5.5592,   -6.5520,   -8.6185,   -9.8894,  -10.7317,  -11.7398,  -13.3200,  -15.1413,  -16.7938,  -18.9943,  -20.9902,  -22.8647,  -22.6772,  -22.2313,  -22.8061,
  5-NOV-1996 03:57:14.76,  999.0000,    5.5915,    5.6591,    5.5427,    5.4319,  999.0000,    5.3177,  999.0000,  999.0000,    0.5689,    0.6448,  999.0000,    4.1689,    5.6336,    6.6988,    7.8382,    8.6653,    8.5926,  999.0000,   10.7625,  999.0000,  999.0000,  999.0000,    7.8975,    7.6721,    6.4756,    4.6895,    3.3113,    2.0689,    2.3870,    1.7677,    1.2178,    0.8984,    1.4288,   -0.1956,   -2.2069,   -3.5805,   -3.3951,   -2.9449,   -2.4803,   -3.3094,   -3.4320,   -3.9147,   -6.6079,   -6.2623,   -7.2307,   -5.0986,   -5.0945,   -5.8661,   -5.8449,   -5.8093,   -7.0399,   -8.9665,  -10.3261,  -12.4332,  -13.7258,  -14.0281,  -15.2915,  -17.0543,  -19.2678,  -21.6294,  -22.1357,  -21.9128,  -23.2321,  -23.8808,
  5-NOV-1996 04:01:50.34,    4.3368,    5.2033,    5.5268,    5.5058,    5.3112,    4.9923,    4.2053,  999.0000,    0.9975,    0.8066,  999.0000,    3.0419,    5.2270,    6.1895,    7.2348,    8.8863,   10.0374,   10.5121,  999.0000,  999.0000,  999.0000,    8.2829,    8.7446,    8.4871,    6.6363,    4.5944,    2.7625,    2.2311,    2.1248,  999.0000,    1.5832,    1.8170,    0.5798,   -0.2272,   -2.5862,   -4.0123,   -5.0368,   -4.5303,   -3.8094,   -2.2473,   -2.9000,   -3.4907,   -4.6055,   -6.0883,   -6.8235,   -6.1328,   -4.7800,   -4.8000,   -6.0120,   -6.4055,   -6.3644,   -6.8607,   -8.7158,  -10.4378,  -12.1237,  -13.3747,  -14.4900,  -16.2448,  -17.6486,  -18.9984,  -21.0925,  -22.0151,  -22.4253,  -23.5970,  -24.4241,
  5-NOV-1996 04:06:26.94,    6.2285,    6.2314,    5.9837,    5.5888,  999.0000,  999.0000,    0.6826,    0.4885,   -0.0610,    0.1633,  999.0000,    4.9268,    5.8678,    6.6724,  999.0000,    9.9773,    9.5034,    9.8580,  999.0000,  999.0000,    9.7901,    8.3233,    8.7604,    7.6231,    5.7243,    3.4071,    1.6983,    1.2967,    0.7888,    0.6857,    1.0455,    1.4572,    1.0708,   -0.1635,   -1.4795,   -2.3539,   -3.9131,   -3.1829,   -2.2060,   -2.4301,   -3.6398,   -4.6485,   -5.8216,   -7.2265,   -8.4310,   -7.7934,   -6.8869,   -7.0056,   -7.8494,   -8.3995,   -8.0977,   -8.3131,   -9.3637,  -10.9825,  -12.6591,  -13.8621,  -15.0277,  -16.5300,  -18.4245,  -19.7368,  -21.3119,  -21.5275,  -23.2189,  -24.3209,  -24.3665,
  5-NOV-1996 04:11:07.20,    5.4652,    5.9532,    6.0019,  999.0000,    5.2544,    4.4530,  999.0000,  999.0000,  999.0000,  999.0000,    3.9342,    4.7088,    5.9674,  999.0000,  999.0000,    8.8902,    8.7681,    9.1769,    9.1061,  999.0000,    8.5096,    8.7509,    8.6362,    6.8223,    5.0744,    2.9585,    2.3463,    2.2845,    1.6895,    1.0900,    0.5023,    0.0715,   -0.5345,   -1.1271,   -1.8994,   -2.8102,   -3.8853,   -2.2617,   -1.4793,   -1.8407,   -3.2144,   -4.4430,   -6.2687,   -7.6073,   -7.9340,   -6.9290,   -6.6546,  999.0000,  999.0000,   -7.8176,   -7.5931,   -7.2373,   -7.8737,   -9.3848,  -11.0378,  -12.7145,  -13.6644,  -14.7942,  -16.4759,  -18.3232,  -20.3194,  -21.4703,  -22.2428,  -22.7105,  -24.3068,
  5-NOV-1996 04:15:41.02,    5.5984,    5.6319,  999.0000,    5.4027,  999.0000,  999.0000,  999.0000,    0.8362,    0.2295,    0.4594,  999.0000,  999.0000,  999.0000,  999.0000,    7.5594,    8.5893,    9.0577,    8.7362,    8.2479,  999.0000,  999.0000,    8.6450,    8.6805,    7.6213,    5.5924,    4.1782,    3.8472,    3.7758,    2.9481,    2.2017,    2.1496,    0.3667,   -0.6037,   -1.1657,   -1.4794,   -2.6471,   -3.2064,   -2.3712,   -2.1574,   -2.7326,   -3.5588,   -4.3697,   -5.7670,   -6.0520,   -5.4506,   -5.1142,   -5.6566,   -6.3688,   -6.9669,   -7.0148,   -6.8830,   -6.7199,   -7.6674,   -8.9604,  -10.1103,  -11.2240,  -12.4589,  -14.0572,  -15.9803,  -17.3673,  -18.4622,  -20.6135,  999.0000,  -22.5168,  -24.0122,
  5-NOV-1996 04:20:15.14,    5.0948,    5.3574,  999.0000,  999.0000,  999.0000,    2.9482,    2.6403,  999.0000,  999.0000,  999.0000,  999.0000,  999.0000,  999.0000,  999.0000,  999.0000,    8.8460,    8.5526,  999.0000,    8.1450,  999.0000,  999.0000,  999.0000,    9.0038,    8.1256,    5.1532,    4.1968,    3.2517,    2.8103,    3.1369,    2.9141,    3.2122,    2.1606,    0.4873,   -1.1589,   -2.1585,   -3.4938,   -3.8385,   -2.4553,   -1.6587,   -1.8289,   -3.0568,   -3.7378,   -4.8278,   -5.2108,   -5.1588,   -5.1600,   -5.4650,   -6.2086,   -6.1294,   -6.0488,   -6.4130,   -6.2835,   -7.0365,   -8.3511,   -9.2667,  -10.6484,  -11.8592,  -13.3043,  -15.2033,  -16.7197,  -18.3021,  -19.9590,  -20.4200,  -21.2228,  -21.0807,
  5-NOV-1996 04:24:51.21,    3.8091,    4.0208,  999.0000,    5.1657,  999.0000,    3.0477,    2.2045,  999.0000,    0.4535,  999.0000,  999.0000,    5.4305,  999.0000,  999.0000,  999.0000,  999.0000,  999.0000,  999.0000,  999.0000,  999.0000,  999.0000,    7.7355,    7.0222,    5.1892,    3.3214,    2.4240,    2.3212,    1.7929,    1.3831,    1.2104,    1.3340,    0.6476,   -1.1163,   -3.0576,   -4.3382,   -4.9121,   -6.0731,   -2.7214,   -1.9401,   -2.3518,   -3.1714,   -4.3223,   -4.2014,   -4.0093,   -4.1990,   -4.5811,   -5.3159,   -6.0209,   -5.7735,   -5.8384,   -6.1037,   -6.1561,   -7.2258,   -8.4423,   -9.4495,  -10.5903,  -11.9920,  -13.3890,  -14.9822,  -16.5663,  -18.4136,  -19.7465,  -22.0821,  999.0000,  999.0000,
  5-NOV-1996 04:29:26.02,    5.4437,    5.6576,    5.2423,  999.0000,    3.3995,  999.0000,    2.5455,  999.0000,  999.0000,  999.0000,  999.0000,  999.0000,  999.0000,  999.0000,  999.0000,  999.0000,  999.0000,    7.7806,  999.0000,  999.0000,  999.0000,  999.0000,  999.0000,    4.2793,    2.8291,    1.0894,    0.9385,    1.1265,    1.4732,    1.1094,    0.4362,   -0.7897,   -1.4990,   -4.2092,   -5.4773,   -6.1821,   -4.6535,   -2.6903,   -1.9359,   -2.0416,   -2.7889,   -2.6904,   -3.6924,   -4.0665,   -4.1078,   -4.1851,   -4.6880,   -4.8626,   -5.2215,   -6.2345,   -6.5312,   -6.5621,   -7.5900,   -8.9155,   -9.5414,  -10.3255,  999.0000,  999.0000,  -15.5605,  -17.4287,  -19.1299,  -19.7114,  999.0000,  -20.1794,  -21.3037,
  5-NOV-1996 04:34:00.69,    6.3699,    6.0982,    5.5290,    4.9606,  999.0000,  999.0000,  999.0000,    1.0956,  999.0000,    1.9299,    2.8438,  999.0000,  999.0000,  999.0000,    8.0334,  999.0000,    9.4252,  999.0000,    8.3021,  999.0000,  999.0000,  999.0000,    6.3930,    5.8218,    3.8248,    2.5175,    0.3770,    0.6565,   -0.2888,   -0.6323,   -0.7751,   -1.9396,   -3.9788,   -4.4056,   -4.3380,   -5.0805,   -3.9028,   -2.2906,   -1.5085,   -1.5279,   -2.1170,   -3.2575,   -3.6674,   -4.2187,   -4.1352,   -3.3335,   -3.2763,   -3.9403,   -4.8801,   -6.2452,   -6.9393,   -7.4597,   -8.3192,   -9.1997,  999.0000,   -9.1247,  -12.0621,  -13.8889,  -15.0866,  -17.4032,  -18.9295,  -20.0294,  999.0000,  999.0000,  -20.3352,
  5-NOV-1996 04:38:34.98,  999.0000,  999.0000,  999.0000,    2.5082,  999.0000,    2.7266,    2.6480,    2.3489,  999.0000,    1.6076,  999.0000,  999.0000,  999.0000,  999.0000,    8.6322,    8.2218,    8.2102,    7.1088,  999.0000,    6.5033,    6.3823,  999.0000,  999.0000,    5.9898,    3.9885,    1.9311,    0.7660,    0.0569,   -0.6949,   -1.2325,   -1.9151,   -3.0966,   -3.8805,   -4.4681,   -4.6632,   -6.4271,   -4.1001,   -2.3869,   -1.1847,   -1.4644,   -2.5446,   -3.0861,   -3.6177,   -3.9676,   -3.7791,   -3.2518,   -2.6471,   -3.4370,   -4.2955,   -5.3205,   -6.2412,   -6.7737,   -7.5732,   -9.3104,  -10.3801,  -10.1663,  -11.3110,  -13.2431,  -15.6660,  -18.0784,  -19.4177,  -19.0181,  -19.7443,  999.0000,  999.0000,
  5-NOV-1996 04:43:09.91,    6.5638,    6.7319,  999.0000,    3.2668,    2.7323,  999.0000,    2.2654,    1.4173,  999.0000,    0.2525,  999.0000,    5.0138,  999.0000,    8.2639,  999.0000,  999.0000,  999.0000,  999.0000,  999.0000,  999.0000,    7.5470,  999.0000,  999.0000,    7.2836,    4.4362,    1.8563,    1.2214,   -0.1688,    0.0091,   -0.8316,   -2.2307,   -4.1317,   -5.7990,   -5.9080,   -5.9872,   -5.8651,   -3.6702,   -2.0663,   -0.9861,   -1.0705,   -2.1489,   -2.9525,   -3.4817,   -3.5549,   -3.2047,   -3.2485,   -2.8628,   -3.4941,   -4.4627,   -5.3233,   -5.6774,   -6.0777,   -7.7777,   -9.0877,  -10.2857,  -10.5198,  -11.5850,  -13.6484,  -15.9449,  -18.2526,  -19.8347,  -18.8874,  -19.2605,  999.0000,  -19.6802,
  5-NOV-1996 04:47:46.12,    6.8255,  999.0000,  999.0000,    3.3629,    3.1704,    2.9496,    2.9371,  999.0000,    2.3730,  999.0000,    2.7880,  999.0000,  999.0000,    8.0198,    8.7918,    8.6618,  999.0000,    9.2017,    9.1840,  999.0000,  999.0000,    7.8705,    7.3972,    6.7240,    4.6989,    3.2060,    2.4570,    1.8008,    1.0190,    0.1124,   -2.1335,   -3.5607,   -5.6028,   -6.3124,   -5.9990,   -5.1424,   -2.4733,   -1.5586,    0.1983,   -0.0820,   -1.5074,   -2.7314,   -2.7926,   -3.2139,   -3.2333,   -2.5958,   -2.8340,   -4.1717,   -4.8775,   -5.3190,   -5.4542,   -5.7537,   -7.1660,   -9.5465,  -11.4204,  -11.7829,  -12.8424,  -14.7709,  999.0000,  -17.5764,  999.0000,  999.0000,  -19.1224,  999.0000,  -19.5857,
  5-NOV-1996 04:52:20.24,    7.3305,    6.0455,  999.0000,  999.0000,    5.4141,  999.0000,  999.0000,  999.0000,  999.0000,  999.0000,  999.0000,  999.0000,    5.4694,  999.0000,  999.0000,  999.0000,  999.0000,  999.0000,  999.0000,  999.0000,    8.7505,    7.9034,    7.6928,    7.6525,    7.0508,    4.5951,    4.0997,    3.2175,    2.7027,    0.9268,   -0.8585,   -2.4309,   -4.0084,   -5.6736,   -5.5481,   -4.6788,   -2.4383,   -2.1492,   -0.2493,    0.1228,   -1.0391,   -3.1203,   -4.4855,   -4.7177,   -3.3035,   -1.9695,   -2.9470,   -3.8798,   -4.5885,   -4.9111,   -5.2008,   -6.0323,   -6.8659,   -8.0733,  -10.4052,  -11.1777,  -11.9966,  -13.9392,  -16.0729,  -17.7936,  -18.2443,  -17.5843,  -17.5390,  -18.4181,  -19.2306,
  5-NOV-1996 04:56:55.66,    6.5697,    6.4350,    5.5587,    5.4959,  999.0000,    5.4645,    5.4585,    4.9122,  999.0000,  999.0000,  999.0000,    5.4589,  999.0000,    6.3602,  999.0000,    8.8401,  999.0000,  999.0000,    8.1810,    8.7638,  999.0000,  999.0000,  999.0000,    6.4770,    5.3244,    4.4813,    4.0111,    3.3301,    3.2407,  999.0000,    1.0796,   -0.7832,   -3.2465,   -5.6250,   -6.2347,   -3.9626,   -1.9734,   -1.5067,   -0.6197,   -0.8418,   -2.3064,   -4.4833,   -5.4813,   -5.4166,   -3.8076,   -2.2198,   -3.1321,   -4.1363,   -4.2408,   -4.2909,   -5.1145,   -6.3177,   -7.5326,   -8.8735,  -10.0113,  -10.7453,  -11.3182,  -12.8244,  -15.4225,  -17.5726,  -17.3216,  -15.8264,  -16.8827,  999.0000,  -17.5148,
  5-NOV-1996 05:01:31.04,    7.0104,    7.6759,  999.0000,    5.6871,    5.3403,    5.3425,    5.4682,  999.0000,  999.0000,    3.1180,  999.0000,  999.0000,  999.0000,  999.0000,  999.0000,  999.0000,  999.0000,  999.0000,  999.0000,  999.0000,  999.0000,  999.0000,    8.1543,    6.5681,    6.2925,    4.8183,    4.1437,    3.1929,    2.6619,    0.8537,   -0.2432,   -2.0599,   -3.7459,   -4.3059,   -3.5092,   -1.4824,   -0.5595,    0.0275,    0.0966,  999.0000,   -3.0862,   -5.8993,   -7.0433,   -5.3602,   -3.1658,   -3.0627,   -3.7502,   -4.4171,   -4.7645,   -5.3353,   -6.0858,   -7.0431,   -8.0346,   -9.2293,  -10.7531,  -11.7324,  -12.7935,  -14.1053,  -15.9126,  -17.3306,  -16.2816,  -15.6095,  -17.3060,  -18.6185,  -18.7713,
  5-NOV-1996 05:06:06.88,    5.6175,    5.9488,  999.0000,    4.9403,    4.6862,    4.7532,  999.0000,  999.0000,  999.0000,    0.7209,  999.0000,  999.0000,  999.0000,  999.0000,    7.8451,  999.0000,  999.0000,  999.0000,  999.0000,  999.0000,  999.0000,    8.4116,    7.8098,    7.8417,    5.5724,    3.7914,    3.5851,    2.7803,    2.8496,    1.9913,    1.9455,    0.1009,   -2.6760,   -3.7606,   -3.7091,   -3.1208,   -2.9609,   -2.6638,   -2.2416,   -3.6027,   -4.8001,   -6.9049,   -7.3268,   -5.3048,   -2.8690,   -2.8195,   -3.8641,   -5.4401,   -6.0327,   -6.0861,  999.0000,   -7.2119,   -8.3662,   -9.7185,  -11.6730,  -12.9499,  -13.7290,  -14.0592,  -15.1663,  -17.9193,  -18.1349,  -16.9984,  -17.3801,  -18.8216,  -19.3279,
  5-NOV-1996 05:10:43.17,    5.3270,  999.0000,    5.3028,  999.0000,  999.0000,    5.5383,  999.0000,    2.2234,    0.9638,  999.0000,  999.0000,  999.0000,  999.0000,  999.0000,  999.0000,  999.0000,  999.0000,  999.0000,  999.0000,  999.0000,  999.0000,  999.0000,  999.0000,    5.7836,    3.4947,    2.6007,    1.8954,    1.8679,    1.1715,   -0.3360,   -1.5986,   -2.8598,   -3.7512,   -4.5597,   -3.3310,   -2.2492,   -1.2651,   -1.3206,   -1.1010,   -2.0477,   -3.7642,   -5.9208,   -6.8953,   -5.8523,   -3.5676,   -2.9399,   -3.4667,   -4.9047,   -5.5836,   -5.8942,   -6.2466,   -7.3467,   -8.8796,  -10.5707,  -13.1094,  -14.4278,  -14.7437,  -15.5467,  -16.8158,  -18.2273,  -17.5799,  -15.8681,  -15.6752,  -17.3708,  -18.9980,
  5-NOV-1996 05:15:19.43,    6.0131,    6.0360,    5.5918,    5.5160,    5.4309,    5.4292,    5.3512,    5.1926,  999.0000,    2.7836,  999.0000,    5.2405,  999.0000,  999.0000,  999.0000,  999.0000,  999.0000,  999.0000,    8.2095,    8.4521,  999.0000,    8.3903,  999.0000,    5.9576,    3.6885,    2.5906,    2.2868,    2.6035,    2.0881,    0.2131,   -1.8564,   -3.7613,   -3.8588,   -3.3487,   -2.1794,  999.0000,   -1.3667,   -1.7105,   -2.0439,   -2.9176,   -4.8764,   -6.3288,   -6.9695,   -6.3136,   -4.3438,   -2.8405,   -3.2315,   -4.4781,   -5.4018,   -6.1381,   -6.8153,   -8.0479,  -10.1540,  -11.8237,  -13.7207,  -14.9878,  -15.9799,  -16.3963,  -17.4837,  -18.6100,  -18.3291,  999.0000,  -16.6269,  -17.9030,  -19.4117,
  5-NOV-1996 05:19:55.69,    5.5525,    5.8247,    5.3467,  999.0000,    5.4391,    5.2348,  999.0000,  999.0000,  999.0000,  999.0000,  999.0000,  999.0000,  999.0000,  999.0000,    4.8426,  999.0000,  999.0000,  999.0000,  999.0000,  999.0000,  999.0000,    8.2164,    6.1403,    5.8134,    3.0902,    2.6587,    3.3230,    2.9444,    1.1995,   -0.3916,   -1.8166,   -2.8822,   -2.7124,   -2.2907,   -1.0441,   -0.1700,    0.3388,    0.1086,   -0.1146,   -1.5755,   -3.7431,   -5.3417,   -5.8888,   -5.7131,   -4.2552,   -3.2729,   -3.4912,   -4.1328,   -4.6495,   -5.5074,   -6.5248,   -7.5793,   -9.5350,  -10.7655,  -12.0767,  -13.8085,  -14.9508,  -16.0744,  -16.7858,  -16.7445,  -15.2615,  -14.3226,  999.0000,  -17.9706,  -19.3942,
  5-NOV-1996 05:24:32.42,    8.1127,    7.6299,  999.0000,    6.0730,  999.0000,    4.3457,  999.0000,    2.8780,  999.0000,    0.2453,  999.0000,  999.0000,  999.0000,  999.0000,  999.0000,  999.0000,    9.0383,  999.0000,  999.0000,  999.0000,  999.0000,  999.0000,  999.0000,    5.5556,    3.5407,    2.8220,    3.2473,    2.6239,    0.8134,   -1.4993,   -2.3429,   -2.3645,   -2.8425,   -2.2824,   -0.2060,    0.0957,   -0.0918,    0.1819,    0.0274,   -1.8773,   -4.4332,   -5.5724,   -5.8220,   -5.3597,   -4.4427,   -3.6131,   -3.9213,   -4.6772,   -5.3951,   -6.2176,   -7.2328,   -8.4662,  -10.0720,  -11.9131,  -13.7068,  -15.1899,  -16.1659,  -17.5906,  -17.4142,  -15.8662,  -14.7257,  -15.5940,  -17.6415,  -19.4621,  -20.5444,
  5-NOV-1996 05:29:08.76,  999.0000,    5.5897,  999.0000,  999.0000,  999.0000,    5.2837,  999.0000,  999.0000,    3.9818,  999.0000,    3.0727,  999.0000,  999.0000,  999.0000,    7.2532,  999.0000,  999.0000,  999.0000,    8.3015,    8.6511,  999.0000,  999.0000,    5.6103,    4.2838,    2.9294,    2.5529,    3.1771,    2.3711,    0.4370,   -0.9134,   -1.7858,   -1.2532,   -0.9841,   -0.3863,    0.5367,    0.6046,    0.3852,    0.2749,   -0.6989,  999.0000,  999.0000,   -5.6325,   -5.4229,   -4.9495,   -3.4665,   -3.0181,   -3.4776,   -4.6083,   -5.4857,   -6.2772,   -7.1864,   -8.8340,  -10.7023,  -12.3487,  -14.5040,  -15.6413,  -16.3279,  -17.6987,  -17.9565,  -15.8176,  -15.9630,  -17.5839,  -18.8902,  -20.0871,  -21.1313,
  5-NOV-1996 05:33:42.85,    7.2832,    7.5194,  999.0000,  999.0000,    5.3990,    4.4013,  999.0000,    2.8613,    2.7136,    0.1364,    0.2139,  999.0000,  999.0000,  999.0000,  999.0000,  999.0000,  999.0000,  999.0000,   10.7416,   10.8508,  999.0000,    8.1189,    7.0328,    4.0112,    4.0809,    3.1652,    3.0826,    2.3519,    1.0458,    0.8151,    0.8213,   -0.0451,    0.3794,   -0.5414,   -0.1490,   -0.0501,  999.0000,    0.4043,   -1.3385,   -3.1302,   -4.4824,   -5.1713,   -5.7494,   -5.3135,   -4.2611,   -4.5671,   -4.8515,   -5.0116,   -5.5346,   -6.5744,  999.0000,  999.0000,  -11.6051,  -12.6802,  -13.3660,  -15.2420,  -16.2012,  -17.7735,  999.0000,  -15.8996,  -15.4812,  -17.1640,  -18.7113,  -19.5790,  -20.4412,
  5-NOV-1996 05:38:19.13,    5.3209,    5.0665,  999.0000,    3.0721,  999.0000,  999.0000,  999.0000,  999.0000,  999.0000,  999.0000,  999.0000,  999.0000,  999.0000,  999.0000,  999.0000,  999.0000,  999.0000,  999.0000,  999.0000,  999.0000,  999.0000,  999.0000,    5.0123,    5.1967,    4.8034,    3.8434,    3.7906,    3.1293,    2.5616,    1.6698,    1.7459,    0.5447,    0.6263,    0.8093,    0.9633,    1.3970,    2.0659,    1.7416,   -0.5182,   -3.7772,   -5.7493,   -6.0706,   -6.3958,   -5.7417,   -4.8714,   -4.5567,   -4.4540,   -5.1977,   -5.8468,   -6.2206,   -7.3376,   -8.8857,  -10.1974,  -10.8632,  -12.7121,  -15.0523,  -16.3086,  -16.6609,  -16.8140,  -15.0486,  -14.7859,  -16.8034,  -18.3261,  -19.0432,  -19.7453,
  5-NOV-1996 05:42:55.91,    7.7294,  999.0000,    3.7678,    1.4217,  999.0000,    1.8419,    2.2298,    2.4888,  999.0000,  999.0000,  999.0000,  999.0000,  999.0000,  999.0000,  999.0000,  999.0000,  999.0000,  999.0000,  999.0000,  999.0000,  999.0000,    7.2585,  999.0000,    4.4105,    3.4579,    3.9023,    4.0325,    2.5445,    2.1106,    0.7224,   -0.2078,   -0.4269,   -0.2862,   -0.4155,   -0.3847,    0.4759,    1.1017,    0.4286,   -0.0554,   -3.0472,   -6.0340,   -6.2655,   -6.0441,   -5.1573,   -4.2049,   -3.7793,   -4.2744,   -5.2079,   -5.8345,   -6.2537,   -7.2608,   -8.8433,   -9.6450,  -10.3810,  -12.2976,  -14.7766,  -16.3564,  -17.2837,  999.0000,  -15.0110,  -15.1025,  -16.4658,  -18.1011,  -19.2341,  -19.8428,
  5-NOV-1996 05:47:31.84,    6.1039,    5.5807,  999.0000,    3.0950,  999.0000,  999.0000,  999.0000,    3.1159,    3.0734,  999.0000,    1.8130,  999.0000,  999.0000,  999.0000,  999.0000,  999.0000,  999.0000,  999.0000,  999.0000,  999.0000,  999.0000,    7.3699,  999.0000,    5.1381,    4.1871,    3.6494,    3.2788,    2.7053,    1.7474,    0.1976,    0.6723,    0.2691,    0.4154,    0.5525,    1.1737,    1.5805,    0.6596,  999.0000,   -0.9438,   -1.9146,  999.0000,   -3.3257,   -2.8668,   -2.2542,   -1.6206,   -2.5653,   -3.1934,   -3.6281,   -4.6576,   -5.5998,   -7.2626,   -9.2556,  -10.1492,  -10.7665,  -12.7093,  -14.7644,  -15.7436,  -16.9279,  999.0000,  -15.5590,  -16.3926,  -18.4109,  -19.9591,  -21.1886,  -21.4270,
  5-NOV-1996 05:52:06.72,    8.1033,  999.0000,    5.8685,  999.0000,    1.7422,  999.0000,  999.0000,  999.0000,  999.0000,  999.0000,  999.0000,  999.0000,  999.0000,  999.0000,  999.0000,  999.0000,  999.0000,  999.0000,  999.0000,  999.0000,  999.0000,    6.9151,    5.0743,    5.1605,    3.9019,    2.6755,    2.4067,  999.0000,    2.4814,    2.5172,    3.4521,    3.6106,    3.3804,    3.3493,    2.9427,    1.6232,    1.3491,    0.8173,   -0.1984,   -1.7500,   -3.2611,  999.0000,   -3.8025,   -3.1898,   -2.3847,   -2.4790,   -3.3183,   -4.2780,   -4.6451,   -4.9659,   -5.9228,   -7.8972,   -9.4343,  -10.4546,  -11.8704,  999.0000,  999.0000,  -16.6591,  999.0000,  -14.9631,  -15.5152,  -16.8520,  -18.4657,  -19.8815,  -20.3806,
  5-NOV-1996 05:56:43.71,    7.0684,  999.0000,  999.0000,    3.1777,    2.7201,    2.7595,  999.0000,  999.0000,  999.0000,  999.0000,  999.0000,  999.0000,  999.0000,  999.0000,  999.0000,  999.0000,  999.0000,  999.0000,  999.0000,  999.0000,  999.0000,    8.2877,  999.0000,    3.6207,    3.4051,    2.5936,    2.0846,    1.9515,    1.9554,    1.8648,    2.6118,    2.8480,    3.2173,    3.2856,    2.7630,    1.8939,  999.0000,    0.6485,   -0.5119,   -2.2943,   -3.4518,   -3.6320,   -3.8125,   -3.8003,   -3.3112,   -3.5369,   -4.8845,   -5.3683,   -4.8652,   -5.2573,   -6.6245,   -8.5630,  -10.3617,  -11.5158,  -12.5001,  -13.8053,  -15.3036,  -16.5911,  -15.8542,  -14.6873,  -14.7858,  -16.2063,  -17.5883,  -18.9341,  -19.7220,
  5-NOV-1996 06:01:17.79,    5.1442,  999.0000,    5.0754,  999.0000,  999.0000,  999.0000,  999.0000,  999.0000,  999.0000,  999.0000,  999.0000,  999.0000,  999.0000,  999.0000,  999.0000,  999.0000,  999.0000,  999.0000,  999.0000,  999.0000,  999.0000,  999.0000,  999.0000,    1.5544,    1.1075,    0.9572,    0.9804,    2.4246,    2.7041,    3.1935,    3.3156,    2.8050,    2.5670,    2.4995,    2.4755,  999.0000,    0.7407,   -0.3942,   -1.6323,   -3.1586,   -3.0323,   -3.0642,   -3.0809,   -3.1483,   -3.0972,   -3.9156,   -4.8727,   -4.7023,   -5.3870,   -6.1509,   -7.1680,   -8.7175,  -10.1019,  -10.9343,  -11.9837,  -13.3306,  -14.4481,  -15.2908,  -14.0896,  -13.7992,  -14.0120,  999.0000,  -16.5978,  -18.6894,  -20.3958,
  5-NOV-1996 06:05:55.19,    3.6002,    3.5180,    2.9925,  999.0000,  999.0000,  999.0000,    4.9425,    5.2495,  999.0000,  999.0000,  999.0000,  999.0000,  999.0000,  999.0000,    4.3559,  999.0000,  999.0000,  999.0000,  999.0000,  999.0000,  999.0000,  999.0000,  999.0000,    1.2539,    1.1138,    0.6130,    1.2700,    2.7715,    3.1106,    4.3886,    4.7590,    4.2116,    3.4586,    3.3884,    3.2061,    3.1348,    2.0942,    0.1986,   -1.4260,  999.0000,   -2.7897,   -2.7496,   -3.3437,  999.0000,   -3.4145,   -3.7497,   -3.7751,   -3.9437,   -4.8833,   -6.2655,   -7.5388,   -8.4819,   -9.1659,  -10.3566,  -11.7390,  -13.3258,  -14.1948,  -14.3765,  -13.4125,  -14.1490,  -15.0643,  -16.0524,  -16.6832,  -18.1360,  -19.5774,
  5-NOV-1996 06:10:31.61,    8.0881,    7.0943,  999.0000,    2.5050,    1.5255,    1.2641,    2.9768,  999.0000,  999.0000,    5.4361,  999.0000,    5.5239,  999.0000,  999.0000,  999.0000,  999.0000,  999.0000,  999.0000,    7.5867,  999.0000,  999.0000,  999.0000,  999.0000,    1.7785,    1.7151,    1.1143,    1.6294,    2.1664,    2.4523,    3.0281,    3.4002,    3.6340,    4.2663,    3.8272,    3.5643,    2.3271,    0.8999,   -0.4128,   -1.7169,   -2.2212,   -2.3784,   -2.3242,   -2.4982,   -2.3028,   -2.9252,  999.0000,   -3.8379,   -4.0781,   -5.3779,   -6.9829,   -8.1300,   -9.1841,  -10.5935,  -11.5042,  -12.0844,  -14.2541,  -15.9361,  -14.7620,  -14.4603,  -15.6074,  -16.2120,  -16.0352,  -16.7694,  -17.7903,  -19.2775,
  5-NOV-1996 06:15:05.58,    7.6727,  999.0000,    5.0217,  999.0000,    2.8331,  999.0000,    2.6935,    2.6729,  999.0000,  999.0000,  999.0000,  999.0000,  999.0000,  999.0000,  999.0000,  999.0000,  999.0000,  999.0000,  999.0000,  999.0000,  999.0000,  999.0000,  999.0000,  999.0000,    1.7069,  999.0000,    1.9685,  999.0000,    2.5914,    3.8111,    4.9494,    4.6536,    3.6612,    3.1491,    3.0332,    1.9423,    1.1182,   -0.7026,   -1.5431,   -2.0985,   -2.5008,   -2.8325,   -3.0951,  999.0000,   -3.9306,   -4.2093,   -4.7794,   -5.8320,  999.0000,  999.0000,   -8.7418,   -9.7832,  -10.5196,  -11.3613,  999.0000,  999.0000,  -14.6833,  -14.4968,  -14.5021,  -15.4117,  -15.6379,  -16.2787,  -17.8041,  -19.5123,  -20.2593,
  5-NOV-1996 06:19:41.39,    4.2057,    2.6454,    1.4649,  999.0000,    0.2056,  999.0000,  999.0000,  999.0000,  999.0000,  999.0000,    5.6724,    5.9452,    5.1113,  999.0000,  999.0000,  999.0000,  999.0000,  999.0000,  999.0000,  999.0000,  999.0000,  999.0000,  999.0000,    2.3186,    2.4134,    1.8679,    1.1658,    1.4384,    3.6229,    5.4000,    7.9152,    8.4777,    8.2767,    6.4547,    4.4490,    2.8632,    1.1294,   -1.3495,   -2.5967,   -2.7665,   -3.2237,   -3.7601,   -3.8160,   -3.8607,   -4.1662,   -4.5650,   -5.4211,   -6.3150,   -6.6566,   -6.9350,   -7.9899,   -9.2532,   -9.8659,   -9.9064,  -10.2264,  -11.5719,  -12.2058,  -12.6055,  -13.5541,  -14.1614,  -14.6371,  -14.6344,  -15.3718,  -16.2403,  -18.4148,
  5-NOV-1996 06:24:15.27,    5.0553,    4.8698,    4.6375,  999.0000,  999.0000,    3.0389,    2.9064,  999.0000,    5.3879,  999.0000,  999.0000,  999.0000,  999.0000,  999.0000,  999.0000,  999.0000,  999.0000,  999.0000,  999.0000,  999.0000,  999.0000,  999.0000,  999.0000,    0.8546,    2.1039,    1.9382,    2.2596,    2.4989,    2.9130,    3.0444,    4.5877,    5.9611,    6.2942,    5.3094,    3.5906,    2.6259,    1.4726,    0.2216,   -1.0083,   -1.6634,   -2.8775,   -3.0940,   -2.7500,   -2.8251,   -3.4311,   -4.3750,   -5.5478,   -6.5250,   -6.8944,   -7.2629,   -8.1331,   -9.1836,   -9.6830,   -9.8692,  -10.9887,  -12.3016,  -12.6406,  -12.3217,  -12.2443,  -13.0000,  -13.2796,  -13.3067,  -14.2697,  -16.1272,  -18.5151,
  5-NOV-1996 06:28:48.92,    2.3700,    2.7440,    2.7237,    2.5543,  999.0000,  999.0000,  999.0000,  999.0000,  999.0000,  999.0000,  999.0000,  999.0000,  999.0000,  999.0000,  999.0000,  999.0000,  999.0000,  999.0000,  999.0000,    8.4258,  999.0000,  999.0000,   -0.0622,    0.6951,    1.2925,    2.5179,    3.1956,    2.7674,    2.2622,    2.6900,    3.4586,    5.2061,    5.5578,    4.5002,    3.1007,    1.4418,   -0.3047,   -1.8261,   -2.3200,   -2.9541,   -3.2472,   -3.1987,   -3.1063,   -3.1941,   -3.4973,   -5.8467,   -6.9975,   -7.3369,   -8.4048,   -9.5327,  -10.3417,  -10.9448,  999.0000,  999.0000,  -11.2715,  -12.4702,  -13.0373,  -12.1247,  -11.8774,  -12.6636,  -13.2258,  -13.9946,  -15.3168,  -16.7642,  -19.1926,
  5-NOV-1996 06:33:23.11,    2.2630,    2.1115,    2.2401,  999.0000,  999.0000,    3.9946,    4.3993,  999.0000,  999.0000,  999.0000,  999.0000,  999.0000,  999.0000,  999.0000,  999.0000,  999.0000,  999.0000,  999.0000,  999.0000,  999.0000,  999.0000,  999.0000,  999.0000,   -0.2643,   -0.1044,    0.7797,    1.0360,    0.7121,    0.9719,  999.0000,    2.0170,    3.6780,    5.8161,    4.7256,    2.3803,    0.7926,   -0.8970,   -1.9894,  999.0000,   -3.0799,   -3.1881,   -2.5819,   -2.9374,   -3.5981,   -5.0786,   -6.4487,   -6.9160,   -7.3889,   -8.6930,   -9.6600,  -10.3690,  -10.6661,  -10.2157,  -10.3293,  -11.0659,  -12.7309,  -12.9829,  -12.5849,  999.0000,  -14.5382,  -14.8202,  -14.5021,  -15.8126,  -18.4893,  -20.5835,
  5-NOV-1996 06:37:59.35,    0.8980,    0.2215,    0.5345,  999.0000,  999.0000,  999.0000,  999.0000,  999.0000,  999.0000,  999.0000,  999.0000,  999.0000,  999.0000,  999.0000,  999.0000,  999.0000,  999.0000,  999.0000,  999.0000,  999.0000,    4.6045,  999.0000,  999.0000,    0.3659,    1.7001,    2.1617,    1.4332,    0.4635,    2.1226,    4.0528,    5.7962,    6.6850,    6.8662,    4.9644,    2.4763,    0.5494,   -0.3876,   -0.8876,   -1.3151,   -2.0697,   -2.4308,   -2.1727,   -2.6444,   -3.6681,   -5.3957,   -6.2436,   -6.4309,  999.0000,  999.0000,   -8.9282,   -9.6689,   -9.6102,   -9.2626,  -10.0207,  -11.6331,  -12.8822,  -13.0557,  -12.9222,  -14.0397,  -15.3702,  -15.8300,  -16.0786,  -17.4974,  -19.8801,  -20.7925,
  5-NOV-1996 06:42:33.29,    5.0424,  999.0000,  999.0000,  999.0000,    2.8948,    2.3870,  999.0000,  999.0000,  999.0000,  999.0000,  999.0000,  999.0000,  999.0000,  999.0000,  999.0000,    8.0192,  999.0000,  999.0000,  999.0000,  999.0000,  999.0000,   -1.2555,   -0.7361,    0.9718,    2.3254,    3.5733,    3.8045,    3.0999,    2.9107,    4.3910,    5.6529,    7.2098,    7.3759,    5.5902,    3.4175,    0.7454,   -0.6567,   -0.7420,   -1.2015,  999.0000,   -1.6376,   -1.4696,   -2.3591,   -4.1412,   -5.3109,   -6.1122,   -6.5258,   -6.9746,   -8.4075,   -9.6183,   -9.5175,   -9.1357,   -9.2986,   -9.8187,  999.0000,  999.0000,  -12.4951,  -12.7803,  -13.8658,  -15.2982,  -15.0771,  -15.2707,  -17.1230,  -18.5730,  -20.5566,
  5-NOV-1996 06:47:09.42,    5.6270,    4.6350,  999.0000,    2.6961,    3.2457,  999.0000,    3.1836,  999.0000,  999.0000,  999.0000,  999.0000,  999.0000,  999.0000,  999.0000,  999.0000,  999.0000,  999.0000,  999.0000,  999.0000,  999.0000,  999.0000,    0.7363,  999.0000,    2.1553,    3.1671,    3.8328,    3.8434,    3.5728,    3.1360,    4.2013,    5.7789,    6.7903,  999.0000,    4.1192,    1.9551,   -0.3235,   -1.1434,   -1.2571,   -2.1404,   -2.3361,   -2.0847,  999.0000,   -3.0910,   -4.6171,   -4.5314,   -5.1203,   -6.2389,   -7.7007,   -8.8988,   -8.8440,   -8.8026,   -9.2671,   -9.3001,   -9.3380,  -10.1280,  -10.8865,  -11.6965,  -12.9319,  -14.0649,  -14.4593,  -14.0508,  -14.1584,  -15.6928,  -16.5533,  -17.9591,
  5-NOV-1996 06:51:44.16,    3.5347,    2.7466,  999.0000,    0.9215,  999.0000,    0.6760,  999.0000,  999.0000,  999.0000,  999.0000,  999.0000,  999.0000,  999.0000,  999.0000,  999.0000,  999.0000,  999.0000,   10.6321,   10.2191,  999.0000,  999.0000,  999.0000,   -0.3033,    1.4653,    2.4175,    3.4070,    4.1776,    4.5587,    4.7760,    4.9567,    6.8803,    7.1542,  999.0000,    4.6492,    3.0951,    1.4347,    0.7913,    0.2276,   -0.7389,   -1.1724,   -1.0064,   -1.8163,   -3.1992,  999.0000,   -4.1084,   -4.7091,   -6.0047,   -7.2038,   -7.4522,   -7.4696,   -8.0217,   -8.5446,   -8.6147,   -9.0524,   -9.9801,  -10.4765,  -10.5338,  -11.7495,  -13.2635,  -13.9112,  -14.2655,  -15.1444,  -16.4172,  -17.4234,  -18.1559,
  5-NOV-1996 06:56:18.46,    4.7996,  999.0000,    4.9787,  999.0000,  999.0000,  999.0000,    5.1832,    5.0283,  999.0000,  999.0000,  999.0000,    5.3751,  999.0000,  999.0000,  999.0000,  999.0000,  999.0000,  999.0000,  999.0000,  999.0000,  999.0000,    0.8650,    1.3356,    1.9397,    3.4640,    4.3498,    5.2039,    4.9758,    4.6714,  999.0000,    5.3895,    5.7285,    4.6310,    3.9291,  999.0000,  999.0000,    1.7384,    0.3171,   -0.4505,   -0.7143,   -1.1670,   -2.0734,   -3.6571,   -3.9354,   -4.1402,   -4.7031,  999.0000,   -7.2265,   -7.9138,   -8.1019,   -8.6335,   -8.6218,   -8.7270,   -9.5124,  -10.2436,  -10.4491,  -11.0004,  -12.0006,  -13.4667,  999.0000,  999.0000,  999.0000,  -14.5625,  -16.3551,  -18.6693,
  5-NOV-1996 07:00:52.73,    2.7912,    2.7622,    2.7392,    2.8226,    3.0054,  999.0000,    3.7095,  999.0000,  999.0000,  999.0000,  999.0000,  999.0000,  999.0000,  999.0000,  999.0000,  999.0000,  999.0000,  999.0000,  999.0000,  999.0000,    1.5577,    1.5971,    1.8508,    2.8857,    4.4055,    5.0441,    5.4135,    4.4994,    3.8042,    3.1930,    3.6847,    4.4602,    4.1454,    3.8345,    3.8499,    3.0355,    1.8995,    0.4132,   -0.4896,   -1.1128,   -1.4937,   -1.9518,   -3.0046,   -2.8620,   -3.1103,   -4.1593,   -5.1080,   -6.1337,   -6.6807,   -7.1212,   -7.8531,   -8.3449,   -8.8601,   -9.3814,  -10.3154,  -10.8967,  -11.5451,  -11.9317,  -12.4299,  -13.3885,  -14.0447,  -13.9892,  -14.1706,  -15.4524,  -17.3578,
  5-NOV-1996 07:05:27.01,  999.0000,  999.0000,  999.0000,    2.9267,    2.7911,    3.1252,    3.1717,  999.0000,  999.0000,  999.0000,  999.0000,  999.0000,  999.0000,  999.0000,  999.0000,  999.0000,  999.0000,  999.0000,  999.0000,  999.0000,  999.0000,  999.0000,  999.0000,    4.8312,    5.2004,    5.7751,    5.3874,    4.7195,    3.9456,    3.1837,    2.8854,    3.2847,    4.9348,    4.7939,    3.9430,    3.1580,  999.0000,    0.6963,   -0.6052,   -1.1099,   -1.0529,   -2.0567,   -2.8785,   -2.6833,   -3.0717,   -4.3153,   -5.8873,   -6.3508,   -6.0822,   -6.5866,   -7.2166,   -7.7281,   -8.4503,  999.0000,  999.0000,  -10.6574,  -11.2060,  -11.3066,  -12.3202,  -13.3762,  -13.9759,  -14.3787,  -14.8292,  -16.2153,  -18.1017,
  5-NOV-1996 07:10:02.68,    3.3749,    3.2990,    3.0569,    2.7680,  999.0000,    4.9323,    5.3765,  999.0000,    4.3589,  999.0000,  999.0000,  999.0000,  999.0000,  999.0000,  999.0000,  999.0000,  999.0000,  999.0000,  999.0000,  999.0000,  999.0000,  999.0000,  999.0000,    3.6720,    4.8543,    5.0164,    4.7333,    3.9278,    3.6323,    3.6000,    3.3836,    4.1899,    4.7805,    4.4545,    3.9989,    3.9262,    3.2938,    1.0523,    0.2423,    0.1233,   -0.1114,   -1.5214,   -2.4438,   -2.0411,   -2.8215,    0.4901,  999.0000,  999.0000,  999.0000,   -6.9711,   -8.6399,   -9.4765,   -9.7472,  -10.3616,  -10.1136,  -10.4884,  999.0000,  999.0000,  999.0000,  -13.2360,  -13.3329,  -13.8989,  -14.8832,  -15.5108,  -18.6427,
  5-NOV-1996 07:14:36.43,    5.0804,    5.0037,    4.1319,  999.0000,    2.9369,  999.0000,  999.0000,  999.0000,  999.0000,  999.0000,  999.0000,  999.0000,  999.0000,  999.0000,  999.0000,  999.0000,    6.7984,    4.8306,  999.0000,  999.0000,  999.0000,  999.0000,  999.0000,    2.9031,    4.4428,    4.6279,    4.5794,    4.0485,    3.5563,    3.5317,    3.4891,    3.6056,    4.0071,    3.9040,    3.7620,    3.3480,    2.5077,    1.2214,    0.4369,   -0.1076,   -0.4110,   -1.7854,   -2.4394,   -2.3099,   -2.6344,   -2.8708,   -5.2583,   -5.7789,   -6.1003,   -6.5266,   -7.6747,   -9.4964,  999.0000,  999.0000,   -9.9414,  -10.8096,  -11.6807,  -12.5294,  -13.4188,  -13.6652,  -13.4598,  -13.5301,  -14.1270,  -15.9120,  999.0000,
  5-NOV-1996 07:19:10.23,    5.3612,    5.0568,  999.0000,    3.0410,    2.7511,  999.0000,  999.0000,    2.7963,  999.0000,  999.0000,    4.2036,  999.0000,  999.0000,    5.7603,  999.0000,  999.0000,  999.0000,  999.0000,  999.0000,   -1.7998,  999.0000,  999.0000,  999.0000,    3.2002,    4.8794,    5.5498,    4.6786,    4.4088,    3.7735,    3.2619,    3.1953,    3.1766,    2.8857,    2.1816,    1.3578,    0.7738,    0.8812,   -0.2118,   -1.6988,   -1.1207,   -0.9623,   -2.5001,   -3.2752,   -3.0185,   -3.3570,   -4.7882,   -5.6359,   -5.9825,   -6.2533,   -6.6165,   -7.5226,   -8.7875,   -9.3389,   -9.3458,   -9.5235,  -10.1775,  -11.1174,  -12.6022,  -13.4480,  999.0000,  -51.3624,  999.0000,  999.0000,  999.0000,  999.0000,
  5-NOV-1996 07:23:44.17,    5.4427,  999.0000,    3.1258,    2.7689,    2.8087,    2.7265,  999.0000,    3.2135,  999.0000,  999.0000,  999.0000,    5.2716,  999.0000,  999.0000,  999.0000,  999.0000,  999.0000,  999.0000,  999.0000,  999.0000,  999.0000,    0.9934,    1.7696,    3.1829,    4.7743,    5.2986,    4.9479,    5.1086,    4.9820,    4.1550,    3.6474,    3.2518,    3.4524,    2.8581,    2.2692,    0.8347,    0.2979,   -0.8922,   -1.6965,   -0.7068,   -1.2576,   -2.6843,   -2.7551,   -2.9674,   -3.2275,   -4.0006,   -4.5659,   -5.2968,   -5.7454,   -6.1125,   -6.9257,   -7.5605,   -8.2685,   -9.3507,  -10.1009,  -10.3368,  -10.7675,  -12.0697,  -12.9113,  -12.5628,  -20.2107,  -14.9652,  -16.4127,  999.0000,  999.0000,
  5-NOV-1996 07:28:18.42,    5.4584,    4.8934,  999.0000,    2.9163,  999.0000,    2.8952,  999.0000,  999.0000,  999.0000,  999.0000,  999.0000,    4.7028,  999.0000,  999.0000,  999.0000,  999.0000,  999.0000,  999.0000,  999.0000,  999.0000,  999.0000,  999.0000,    2.0650,    2.7301,    4.0834,    4.5301,    5.1923,    5.2145,    4.4414,    4.0045,    3.1414,    3.4311,    3.5782,    2.1849,    1.6036,    1.3785,    1.0099,   -0.2027,   -1.0344,   -0.5031,   -1.5481,   -3.5351,   -3.6052,   -3.1332,   -3.3834,   -4.1494,  999.0000,  999.0000,   -5.9994,   -6.8676,   -7.8924,   -8.3846,   -8.5864,   -9.0552,   -9.9437,  -10.7665,  -11.5148,  -12.1769,  -12.4987,  -12.9427,  -13.4464,  -14.8234,  -17.2703,  -18.8505,  -19.9530,
  5-NOV-1996 07:32:52.63,    5.1141,    5.4523,  999.0000,    3.0677,  999.0000,  999.0000,    4.9175,    4.8942,  999.0000,  999.0000,  999.0000,  999.0000,  999.0000,  999.0000,  999.0000,  999.0000,    8.0882,  999.0000,  999.0000,  999.0000,   -1.0177,   -0.4025,  999.0000,    2.9499,    3.0649,    3.8546,    4.1074,    4.3972,    3.6432,    3.5337,    4.1000,    3.6038,    3.4288,    3.2674,    2.6372,    1.5811,    1.4495,    0.8168,    1.0394,    0.8879,   -0.4208,   -2.5676,   -2.9477,   -2.6567,   -2.8589,   -3.9086,   -4.7128,   -4.8350,   -5.3915,   -6.4419,   -7.5211,   -8.1285,   -8.2262,   -8.8482,   -9.8848,  -11.2267,  -12.8277,  -12.9586,  -12.7460,  -12.4023,  -13.5133,  -15.9698,  -17.5082,  -18.6523,  -19.5660,
  5-NOV-1996 07:37:26.47,    5.0057,  999.0000,    3.0846,  999.0000,    4.2709,    5.0200,  999.0000,  999.0000,  999.0000,  999.0000,  999.0000,  999.0000,  999.0000,  999.0000,  999.0000,  999.0000,  999.0000,  999.0000,  999.0000,  999.0000,  999.0000,  999.0000,    1.4287,    3.1412,    3.0773,    3.4049,    3.4881,    3.6722,    4.0139,    3.1662,    2.7378,    3.2067,    3.5590,    2.6760,    0.9846,   -0.0800,   -1.1028,   -1.0258,   -0.7146,   -1.7971,   -3.6223,   -4.4948,   -3.8381,   -3.8540,   -4.2559,   -5.2074,   -5.8021,   -6.2564,   -6.7580,   -7.4943,   -8.1242,   -9.1334,  -10.0900,  -10.8406,  -11.3718,  -12.2188,  999.0000,  999.0000,  -13.8587,  -13.3166,  -14.4281,  -17.1026,  -17.9139,  -18.4066,  -19.6572,
  5-NOV-1996 07:42:02.26,  999.0000,  999.0000,    3.0911,    3.1427,  999.0000,  999.0000,    5.3093,    5.4641,    5.4906,  999.0000,  999.0000,  999.0000,  999.0000,  999.0000,  999.0000,  999.0000,  999.0000,  999.0000,  999.0000,   -0.7311,  999.0000,  999.0000,  999.0000,    3.6836,    4.4425,    3.5968,    3.5963,  999.0000,    4.0632,    3.4687,    3.4587,    2.4358,    1.0721,   -0.1494,   -1.3001,   -1.5250,   -1.1513,   -0.5780,   -0.9919,   -2.8348,   -4.3791,   -4.5017,   -3.0605,   -3.1387,   -3.8430,   -4.9138,  999.0000,   -5.3624,   -6.3746,   -7.4215,   -8.7097,   -9.7821,  -10.3461,  -10.6158,  -11.0723,  -11.8103,  -12.9736,  -14.1545,  -14.6970,  -15.5680,  999.0000,  -18.3722,  -19.0929,  -19.9818,  999.0000,
  5-NOV-1996 07:46:36.49,    5.0427,  999.0000,    5.3523,    5.1095,    5.3220,  999.0000,  999.0000,  999.0000,    5.6003,  999.0000,  999.0000,  999.0000,  999.0000,  999.0000,  999.0000,  999.0000,  999.0000,  999.0000,  999.0000,  999.0000,  999.0000,    2.0570,    2.7995,    3.8859,    3.4484,    3.3247,    3.4717,    4.3491,    4.7172,    3.9597,    3.2426,    2.2031,    1.3218,  999.0000,    0.4641,   -0.1515,    0.1373,    0.6538,   -1.2393,   -3.4796,   -2.6292,  999.0000,    0.1554,   -0.2651,   -0.7111,   -1.1796,  999.0000,  999.0000,  999.0000,  999.0000,  999.0000,  999.0000,  999.0000,  999.0000,  999.0000,  999.0000,  999.0000,  999.0000,  999.0000,  -46.3018,  999.0000,  999.0000,  999.0000,  -22.0069,  -19.7904,
  5-NOV-1996 07:51:12.81,    5.4788,    5.5156,    5.5031,    5.3716,    5.3820,  999.0000,    5.9835,  999.0000,  999.0000,    7.9486,  999.0000,  999.0000,  999.0000,  999.0000,  999.0000,  999.0000,  999.0000,  999.0000,  999.0000,    0.7955,  999.0000,    2.5684,    3.2289,    2.5508,    2.7091,    2.8901,    3.3303,    3.9801,    4.1680,    3.5212,    3.9778,    2.9106,    2.0725,    1.7678,    1.8159,  999.0000,    1.1486,  999.0000,   -0.6463,   -2.8840,   -2.7182,   -2.3329,   -1.5597,   -2.5698,   -3.1020,   -3.3803,   -4.2574,   -4.2430,   -4.8525,   -6.3259,   -7.5116,   -8.6190,   -9.3035,   -9.9440,  -10.9199,  -11.6625,  -12.3684,  -12.9806,  -13.5053,  -20.2592,  -15.0719,  -16.8011,  -18.5263,  999.0000,  -20.2577,
  5-NOV-1996 07:55:49.99,  999.0000,    5.1584,    5.4653,    5.4503,    5.4580,  999.0000,    5.5013,    5.5969,  999.0000,  999.0000,  999.0000,  999.0000,  999.0000,  999.0000,  999.0000,  999.0000,  999.0000,  999.0000,  999.0000,   -0.0270,    0.7923,    1.2187,    1.9988,    3.2550,    3.9341,    3.6647,    3.9762,    4.8109,    4.8050,    4.3151,    3.9327,    3.8496,  999.0000,    3.0599,    2.8755,    2.2121,    1.1175,    0.5049,   -1.7658,   -3.4323,   -3.6838,   -3.7526,   -3.3289,   -4.2532,   -4.7007,   -4.0903,   -4.4636,   -4.7253,   -4.9005,   -5.9193,   -7.2941,   -8.2760,   -9.0060,   -9.4330,   -9.7989,  -10.7355,  -11.6611,  -12.5939,  -13.2415,  -14.4869,  -15.9432,  -17.2543,  -18.4425,  -19.6897,  -20.1761,
  5-NOV-1996 08:00:24.83,    5.7567,    5.8974,    5.8794,    5.4604,    5.8884,  999.0000,    5.8291,  999.0000,    5.9617,  999.0000,  999.0000,  999.0000,  999.0000,  999.0000,  999.0000,  999.0000,  999.0000,  999.0000,  999.0000,   -0.9201,    0.3184,    1.3365,    1.9824,    3.4811,    3.2129,    3.0007,    3.2931,    3.5566,    3.8114,    3.9298,    3.1752,    3.4692,    2.1082,    1.7085,    1.7244,    1.1357,    1.2724,    1.2259,   -0.9080,   -2.1639,   -2.4579,   -2.7753,   -3.2771,   -3.8481,   -4.5462,   -4.2595,   -4.4364,   -4.8375,   -5.0173,   -5.9207,   -7.5862,   -9.0180,   -9.6430,  -10.1019,  -10.3778,  -11.0864,  -12.1801,  -13.0897,  -13.8331,  -14.8782,  -16.7622,  999.0000,  -19.4128,  -18.8865,  -18.3516,
  5-NOV-1996 08:05:02.30,    6.9927,    7.6990,    7.6998,  999.0000,    7.7306,    8.1448,  999.0000,  999.0000,    8.1559,  999.0000,  999.0000,  999.0000,  999.0000,  999.0000,  999.0000,    8.2920,  999.0000,  999.0000,  999.0000,  999.0000,    0.3379,    0.4133,    0.9771,    2.6635,    2.0694,    2.4849,    3.3399,    3.9407,    4.6724,    4.9178,    4.8362,    4.0377,    2.3500,    1.2006,    0.8671,    1.9075,    2.9034,    1.9650,   -0.0003,   -1.6773,   -2.6997,   -3.4272,   -4.3307,   -4.7645,   -4.4298,   -4.0604,   -3.7397,   -3.7756,   -4.1612,   -5.3085,   -7.3641,   -8.4282,   -8.8472,   -9.6486,   -9.8847,  -10.5035,  -11.8289,  -13.4694,  -14.2109,  -15.2744,  -17.0236,  -17.9368,  -19.0734,  -18.8784,  -19.9866,
  5-NOV-1996 08:09:36.75,    5.4678,    5.5143,    5.4999,    5.5436,    5.7051,  999.0000,  999.0000,    7.9413,  999.0000,  999.0000,  999.0000,    7.5979,  999.0000,  999.0000,    7.9021,  999.0000,  999.0000,  999.0000,  999.0000,   -0.7849,    0.2981,  999.0000,    1.3959,    2.7301,    2.8989,    2.6576,    3.7519,    4.7133,    5.4742,    6.0632,    4.6582,    2.6527,    0.9395,    0.1102,    1.3875,    3.0762,    2.3679,    0.8823,   -1.5303,   -2.8622,  999.0000,   -5.0174,   -5.5171,   -5.2719,   -4.6974,   -4.2475,   -4.3681,   -4.6168,   -5.4197,   -6.1518,   -8.1853,   -9.0780,   -9.0986,  -10.1056,  -10.0638,  -10.9185,  -13.2495,  -15.4743,  -15.2329,  -15.7763,  -17.9251,  -19.0147,  -19.4864,  -20.0650,  999.0000,
  5-NOV-1996 08:14:10.73,    5.5071,    5.9589,    5.9655,    6.1481,  999.0000,    7.7158,    7.9963,    7.9570,  999.0000,    6.3197,  999.0000,  999.0000,  999.0000,  999.0000,    8.0998,    8.0009,    7.5480,  999.0000,  999.0000,   -0.2536,    1.5608,    2.1667,    3.3171,    3.0424,    2.8514,    2.9952,    3.9718,    5.1698,    6.9443,    7.0288,    5.3589,    3.2596,    1.8191,    1.3612,    2.9351,    3.8206,    3.3269,    2.4405,   -0.4852,   -1.8129,  999.0000,  999.0000,  999.0000,  999.0000,  999.0000,  999.0000,  999.0000,  999.0000,  999.0000,  999.0000,  999.0000,   -7.7703,  999.0000,  999.0000,  999.0000,  999.0000,  999.0000,  999.0000,  999.0000,    1.9823,  999.0000,  999.0000,   -4.5668,   -2.6618,   -0.7527,
  5-NOV-1996 08:18:46.70,    7.6734,    7.6836,    7.6843,    7.7834,    7.9757,  999.0000,  999.0000,    7.1079,    6.8698,  999.0000,  999.0000,  999.0000,  999.0000,    7.8631,  999.0000,  999.0000,    4.1621,  999.0000,   -2.4711,   -1.5277,  999.0000,  999.0000,  999.0000,    2.2303,    2.8380,    3.3995,    3.7467,    4.5185,    6.2470,    4.5992,    4.5326,    3.7098,    2.4771,    2.1632,    2.2337,    2.7750,    2.7416,    2.4798,    0.6241,   -1.1901,   -2.2554,   -2.9662,   -3.8551,   -4.6713,   -4.5284,   -4.0142,   -3.3476,   -3.8696,   -4.8827,   -6.3073,   -6.4554,   -6.9486,   -8.2138,  999.0000,  999.0000,  -10.1346,  -13.2117,  -13.6972,  999.0000,   -7.7561,  999.0000,  999.0000,   -2.3352,  999.0000,  999.0000,
  5-NOV-1996 08:23:20.33,    5.7775,    5.8949,    6.2368,    6.0975,  999.0000,  999.0000,  999.0000,    5.5075,    5.8377,  999.0000,  999.0000,    7.9420,    8.0471,  999.0000,    7.8001,  999.0000,  999.0000,  999.0000,   -1.6077,   -1.4876,   -0.2718,    1.2066,  999.0000,    1.9274,    3.6708,    4.2168,    4.1527,    5.8569,    7.2647,    6.6060,    6.0125,    4.9081,    3.6563,    2.7814,    2.9103,  999.0000,  999.0000,  999.0000,  999.0000,  999.0000,  999.0000,   -3.8673,  999.0000,   -4.9592,  999.0000,  999.0000,  999.0000,  999.0000,  999.0000,  999.0000,  999.0000,  999.0000,  999.0000,  999.0000,  999.0000,  999.0000,  -13.8368,  -14.8387,  999.0000,   16.8635,   30.8305,  999.0000,  999.0000,  999.0000,  999.0000,
  5-NOV-1996 08:27:54.00,    7.3746,    8.1775,    8.0588,  999.0000,    5.8095,    5.8325,    5.8653,  999.0000,    7.8706,  999.0000,    8.2010,  999.0000,  999.0000,    5.5907,  999.0000,    5.4568,  999.0000,   -0.1292,   -0.0433,  999.0000,  999.0000,  999.0000,  999.0000,    2.7608,    3.0077,  999.0000,    3.5466,    3.7557,    4.4869,    4.6800,    4.1164,    3.2872,    2.1632,    1.9799,    2.3727,    2.4667,    2.4011,    2.1096,    1.2429,    0.1940,   -0.7219,  999.0000,   -1.4814,   -2.4237,   -2.6148,   -2.2828,   -2.1273,   -3.0861,   -4.2267,   -5.5033,   -7.2048,  999.0000,  999.0000,   -9.2055,   -9.6261,  -10.8968,  999.0000,  999.0000,  -14.8358,  -10.0645,   -8.7460,  -17.3342,  -16.8485,  -17.4951,  -18.3219,
  5-NOV-1996 08:32:28.02,    7.5265,    8.1391,  999.0000,    5.9285,  999.0000,    7.5417,    8.1046,  999.0000,    8.0986,    7.2403,  999.0000,  999.0000,  999.0000,  999.0000,    7.6991,    7.4305,  999.0000,   -2.0471,   -1.2919,    0.3483,    1.1415,    2.4438,    2.8541,    2.5548,    3.5359,    3.9260,    4.1012,    4.3612,    3.5434,    4.2406,    4.5478,    3.4096,    1.2833,    0.3809,    0.7489,  999.0000,    2.4386,    2.0836,    1.4196,  999.0000,   -1.1926,   -2.3869,   -2.2021,   -3.0192,   -3.3005,   -3.0324,   -2.9848,   -3.4550,   -4.2436,   -5.6442,   -7.0670,   -7.3299,  999.0000,  999.0000,   -9.0537,  -10.2982,  -11.4000,  -12.7359,  -14.2741,  999.0000,  999.0000,  -17.3139,  -17.9672,  -19.1008,  999.0000,
  5-NOV-1996 08:37:01.92,    7.5655,    8.3955,    7.2790,    6.3682,  999.0000,  999.0000,  999.0000,  999.0000,  999.0000,  999.0000,  999.0000,  999.0000,  999.0000,    5.4663,    5.7589,  999.0000,  999.0000,   -3.5218,   -2.1300,  999.0000,   -0.1058,    2.4550,  999.0000,    2.4386,    3.2124,    3.6254,    2.9109,    4.2811,    4.4720,    5.2217,    4.6204,    3.4831,    2.2685,    2.1747,    0.6166,    0.9882,    2.2769,    2.7004,    2.7887,    1.5730,   -0.1752,   -0.9180,   -2.0720,   -3.5189,   -3.5883,   -3.4521,   -3.7123,   -4.3988,   -4.7391,   -5.4113,  999.0000,  999.0000,   -8.9207,   -9.2698,   -9.3823,  -10.3127,  -11.3608,  -12.6111,  -14.6185,  -16.2669,  -17.5429,  -18.2042,  -18.9597,  -19.9224,  -19.6580,
  5-NOV-1996 08:41:37.94,    8.1276,    9.0373,    8.5120,    6.5525,    5.5243,    5.4485,  999.0000,  999.0000,  999.0000,  999.0000,  999.0000,  999.0000,  999.0000,  999.0000,    6.9014,    4.5660,    1.3148,   -0.1482,    0.0739,    1.1719,  999.0000,    3.0520,    3.5169,    4.3990,    4.2882,    5.7071,    7.0100,    6.6032,  999.0000,  999.0000,    3.9326,    3.4456,    1.6325,    1.7823,    1.6662,    3.1328,    3.8116,    4.5790,    4.1954,    2.1661,    0.3239,   -1.2261,   -2.5341,   -3.4138,   -3.3504,   -3.9713,   -3.7214,   -4.6167,   -4.8709,   -5.5092,   -6.6672,   -7.2625,   -7.9747,   -8.3618,   -9.0421,  -10.5409,  -11.9251,  -12.5147,  -14.2579,  -16.8555,  -17.8646,  -18.0354,  999.0000,  999.0000,  999.0000,
  5-NOV-1996 08:46:12.07,    9.1271,    8.5461,    8.3294,  999.0000,    6.6387,    6.0625,  999.0000,  999.0000,  999.0000,  999.0000,    6.6527,  999.0000,  999.0000,  999.0000,    4.4870,  999.0000,  999.0000,   -1.1314,  999.0000,  999.0000,  999.0000,    3.0595,  999.0000,    2.9456,    3.3877,    4.7522,    5.3883,    4.7759,    3.9502,    3.4431,    2.5293,    2.3274,    1.2757,    1.4999,    2.4813,    3.4555,    4.1621,    4.0407,    3.4175,  999.0000,   -0.0952,   -0.7866,   -1.8630,   -2.6124,   -2.9959,   -3.5820,   -3.7770,   -4.4777,   -4.5897,   -5.4341,   -6.6637,  999.0000,  999.0000,   -8.3188,   -9.0607,  -10.0549,  -11.1138,  -12.1199,  -13.4651,  -15.2752,  -16.8916,  -18.3078,  -17.9625,  -18.0652,  -17.9090,
  5-NOV-1996 08:50:46.07,    7.3194,    8.4910,    8.6622,    8.5730,   10.1901,  999.0000,  999.0000,  999.0000,  999.0000,  999.0000,  999.0000,    5.4574,    5.4389,    4.8589,    3.5210,   -0.1272,   -2.1297,   -1.4217,  999.0000,  999.0000,  999.0000,    4.5421,  999.0000,    3.5866,    4.0916,    4.6180,    5.6933,    4.6871,    3.8358,    3.1824,    2.3774,    2.4201,    3.1092,    3.2512,    3.8177,    3.9908,    4.0239,  999.0000,    2.3103,    1.1437,   -0.5610,   -1.3223,   -2.2026,   -2.5043,   -3.0041,   -3.4079,   -3.8375,   -4.1685,   -3.8161,   -4.4344,   -5.9266,   -6.4878,   -6.5399,   -6.3777,   -7.1161,   -7.8432,   -8.5124,   -9.4810,  999.0000,  -13.6984,  -16.0207,  -16.7472,  -17.4633,  -18.2790,  -18.7558,
  5-NOV-1996 08:55:20.42,    6.7181,    7.2933,    6.7676,    6.4412,  999.0000,    7.9336,  999.0000,    5.8180,  999.0000,  999.0000,  999.0000,  999.0000,    7.0630,    6.0085,  999.0000,    0.2598,   -0.7791,  999.0000,  999.0000,    1.3636,  999.0000,  999.0000,  999.0000,    4.8482,    5.1378,    5.1445,    5.7536,    4.7061,  999.0000,    3.0795,    3.2790,    3.4202,    3.2594,    3.2124,    2.7262,    2.7375,    2.5363,    1.7518,    0.4478,   -0.7158,  999.0000,   -3.1006,   -3.9235,   -3.9410,   -4.0631,   -4.5510,   -4.7425,   -4.9029,   -5.0372,   -6.1175,   -6.8437,   -7.0554,   -6.9797,   -6.7889,   -7.0808,   -8.2799,   -9.0444,  999.0000,  999.0000,  -13.9185,  -15.6217,  -16.8698,  -18.2404,  -18.0944,  -18.2153,
  5-NOV-1996 08:59:54.32,    7.2567,    7.8112,    7.5320,    8.1490,  999.0000,    8.1250,  999.0000,  999.0000,  999.0000,  999.0000,    6.5803,  999.0000,    5.1493,  999.0000,  999.0000,  999.0000,  999.0000,    0.5388,    1.6058,    2.8292,    3.9056,  999.0000,    3.3326,    2.1296,    3.0068,    3.3934,    3.9563,  999.0000,    2.6524,    2.1836,    2.3661,    2.6246,    3.0741,    3.2806,    3.5524,    3.3481,    2.9638,    0.8324,   -0.1969,   -0.9316,   -1.7751,   -3.1760,   -4.0004,   -3.8442,   -4.4553,   -4.9519,   -4.4340,   -4.5322,   -5.4732,   -6.2513,   -6.6324,   -6.5390,   -6.8003,   -7.3457,  999.0000,  999.0000,   -9.0978,  -10.0820,  -12.0679,  -14.1940,  -15.1963,  -16.1399,  -16.6254,  -15.4163,  -17.0905,
  5-NOV-1996 09:04:28.85,  999.0000,  999.0000,  999.0000,  999.0000,  999.0000,  999.0000,  999.0000,  999.0000,  999.0000,  999.0000,  999.0000,  999.0000,  999.0000,  999.0000,  999.0000,  999.0000,  999.0000,  999.0000,  999.0000,  999.0000,  999.0000,  999.0000,  999.0000,  999.0000,  999.0000,  999.0000,  999.0000,  999.0000,  999.0000,  999.0000,  999.0000,  999.0000,  999.0000,  999.0000,  999.0000,  999.0000,  999.0000,  999.0000,  999.0000,  999.0000,  999.0000,  999.0000,  999.0000,  999.0000,  999.0000,  999.0000,  999.0000,  999.0000,  999.0000,  999.0000,  999.0000,  999.0000,  999.0000,  999.0000,  999.0000,  999.0000,  999.0000,  999.0000,  999.0000,  999.0000,  999.0000,  999.0000,  999.0000,  999.0000,  999.0000,
